GFSNGP_850_thetae_000.txt.gz
Theta_e
317 317 316 316 316 316 317 317 318 319 318 318 317 317 315 314 313 311 309 311 310 308 305 301 298 297 295 296 296 297 295 293 293 291 291 290 289 288 288 287 286 286 286 286
315 315 316 316 316 316 316 316 317 318 319 318 316 315 314 312 312 309 309 311 308 305 302 299 297 296 297 298 297 296 294 293 292 291 290 290 288 288 287 286 286 286 286 286
318 315 314 316 316 316 316 316 316 318 317 316 315 314 311 309 309 310 310 307 307 303 299 297 296 298 298 299 296 294 294 292 291 291 290 289 287 286 286 285 285 285 285 286
317 317 320 317 315 314 314 314 314 315 315 314 313 310 311 311 310 309 308 306 305 301 297 296 298 299 299 296 295 294 291 291 291 290 289 287 286 285 285 285 285 285 285 285
319 319 317 315 315 314 313 313 313 313 313 311 311 310 310 310 309 308 307 305 301 300 299 299 299 299 296 295 293 291 291 291 290 289 287 286 285 285 284 284 284 285 284 284
319 318 319 316 315 309 308 314 311 310 312 311 310 312 313 311 307 306 305 305 302 301 299 299 298 297 294 293 292 291 291 290 291 288 287 285 284 284 284 284 284 284 283 282
314 315 316 315 309 308 315 317 310 313 312 312 313 312 311 308 306 305 304 304 302 300 299 298 297 295 295 292 291 291 291 291 288 288 286 285 283 283 283 284 283 282 283 283
315 317 318 312 308 313 313 313 313 312 312 312 311 310 308 306 304 304 303 302 300 297 297 297 296 294 293 291 290 291 290 288 288 287 286 283 283 283 283 283 283 282 282 283
316 317 315 313 311 312 313 313 312 312 311 311 310 309 306 304 303 304 302 299 297 297 297 296 294 292 291 290 290 290 289 288 287 286 283 282 282 282 283 283 282 282 282 283
314 313 314 313 313 313 312 312 311 311 311 310 308 304 303 303 304 302 299 298 297 296 295 293 292 291 290 290 290 289 288 288 287 284 283 282 282 282 283 282 281 282 282 283
313 313 312 312 312 312 311 311 311 310 310 309 306 304 303 303 301 299 297 297 296 294 293 292 291 291 290 290 289 288 288 288 285 282 282 282 282 282 282 281 281 281 282 282
315 313 313 313 311 310 310 310 310 309 309 308 306 304 302 300 299 297 296 296 295 293 292 291 290 290 290 289 287 288 288 286 283 282 282 282 282 282 282 281 281 282 283 282
312 311 310 310 310 310 310 310 309 309 308 306 304 300 300 298 297 296 295 295 293 292 291 290 290 290 288 287 288 288 287 285 281 281 281 281 281 281 281 281 281 281 282 283
309 310 310 309 309 309 308 305 304 304 303 302 300 298 297 295 296 296 295 294 292 291 291 290 289 288 287 288 288 287 286 283 281 281 281 281 280 280 280 280 281 281 282 282
308 309 309 308 307 303 301 300 300 301 302 299 298 297 296 295 296 294 293 292 292 291 289 288 288 288 288 288 287 286 284 281 281 280 280 279 280 280 280 280 280 280 280 283
308 306 305 301 300 300 299 299 300 301 299 298 296 295 295 295 294 293 292 290 289 288 288 288 288 288 287 287 286 284 282 281 281 280 280 280 280 280 280 280 280 279 279 281
302 300 300 299 299 299 299 299 299 298 297 295 295 295 295 293 292 290 289 288 288 288 288 288 288 287 287 286 285 283 281 280 280 280 280 279 279 279 279 279 279 279 279 280
298 298 298 298 298 298 297 298 298 296 295 295 294 293 292 291 289 288 288 288 288 288 288 288 287 287 286 286 285 283 281 280 279 279 279 279 278 278 278 278 278 278 280 280
298 297 296 297 298 297 296 296 294 294 293 293 291 290 289 288 288 288 288 288 288 288 289 287 286 285 286 286 285 283 281 280 279 279 278 278 278 278 277 278 277 277 279 279
298 296 296 297 296 295 295 295 294 293 290 289 288 288 288 288 288 288 287 287 288 289 287 287 286 285 284 285 285 282 281 279 279 278 277 278 277 277 277 277 277 277 278 278
296 295 296 297 296 295 295 292 290 289 289 289 288 288 288 288 288 288 289 289 289 288 288 287 286 285 285 285 284 283 281 279 278 278 277 277 277 276 276 276 276 277 277 277
295 295 295 295 294 292 289 290 289 289 289 288 288 289 289 289 290 290 290 290 289 289 288 287 286 286 286 285 284 283 281 279 278 278 277 276 276 276 275 275 275 274 276 276
295 295 294 294 292 289 290 290 289 289 289 290 290 290 290 289 289 289 289 289 288 288 288 287 286 286 286 285 284 284 282 279 278 278 277 276 275 275 274 274 274 274 273 274
295 294 294 292 290 289 290 289 289 289 290 290 289 288 287 287 286 286 286 286 287 287 286 286 286 286 286 285 284 283 282 280 279 278 277 276 276 275 274 274 274 273 273 274
295 294 293 291 289 290 289 289 289 289 290 289 288 286 286 286 285 285 286 286 286 286 286 286 286 286 285 285 284 283 283 280 279 278 277 276 276 275 275 274 274 274 274 274
293 293 292 289 290 289 289 289 290 290 290 288 286 286 286 286 285 285 285 286 286 286 286 287 286 286 285 285 284 283 283 281 280 279 277 276 276 276 275 275 274 273 273 273
292 291 291 290 289 289 289 290 290 290 290 286 285 285 285 285 285 285 286 286 285 286 286 286 286 286 286 285 284 283 283 282 281 280 278 277 276 276 275 275 274 273 273 273

GFSNGP_850_thetae_003.txt.gz
Theta_e
319 319 318 319 319 319 319 320 322 322 321 320 319 318 317 315 315 313 313 313 312 311 310 310 307 304 302 300 298 297 297 297 297 296 295 294 293 292 292 291 290 289 288 289
317 317 318 319 318 317 318 318 319 319 320 318 317 316 315 313 313 313 313 312 311 310 309 309 304 302 301 299 298 298 299 298 296 295 294 293 292 291 291 289 288 288 288 288
317 317 316 318 317 319 318 318 318 320 319 316 315 314 314 314 313 312 312 312 310 308 308 307 303 300 299 299 300 299 297 296 295 294 293 292 291 291 289 288 288 288 288 287
317 320 321 318 317 317 317 316 316 316 316 314 314 314 314 313 312 311 310 308 307 307 307 304 301 300 300 300 299 297 297 295 293 292 292 291 290 289 288 288 287 287 287 286
321 319 318 316 317 317 316 315 314 315 314 314 313 313 313 313 310 310 308 307 307 306 306 303 301 301 300 299 297 296 294 293 292 291 291 290 289 288 287 287 287 286 286 286
320 319 319 316 316 313 313 317 315 314 314 314 314 315 314 311 310 309 306 306 306 305 304 302 300 298 298 297 295 295 293 292 291 291 289 288 288 287 286 286 286 285 284 284
315 317 316 316 315 312 317 318 315 314 314 313 313 312 312 310 307 305 306 305 304 303 302 299 299 298 296 295 295 293 291 291 290 289 288 287 286 286 286 285 285 284 284 283
316 318 320 315 314 315 315 315 314 314 313 312 312 311 310 308 305 305 304 304 302 300 300 299 298 297 295 295 293 291 291 290 289 289 288 286 286 285 285 285 285 284 283 283
317 318 316 316 315 314 314 314 313 312 312 311 310 311 309 306 305 304 304 301 300 299 299 298 296 294 293 292 291 290 290 289 289 288 287 286 285 285 284 285 284 283 282 282
317 315 315 314 313 314 314 312 311 311 311 310 310 310 308 307 304 304 301 299 298 298 297 296 294 292 291 291 291 290 289 288 288 287 285 285 284 284 284 284 283 283 282 282
315 315 313 313 313 312 312 310 311 311 310 309 309 308 307 305 303 301 299 298 297 297 296 294 293 291 290 290 290 288 288 287 287 286 285 284 284 284 283 283 283 281 281 281
313 312 314 313 311 310 310 310 310 309 306 305 306 306 305 303 300 299 297 297 297 296 294 293 292 290 290 290 288 287 288 287 286 284 284 284 284 283 283 282 281 281 282 281
313 313 312 311 310 310 310 309 305 303 303 302 304 303 300 298 297 296 297 297 295 294 293 292 291 290 289 288 287 288 287 287 285 284 284 283 283 282 282 282 282 282 282 281
310 311 310 309 310 309 306 303 302 302 301 302 301 300 298 297 297 297 297 295 293 292 292 291 290 289 288 288 288 287 287 286 284 283 283 283 282 282 281 282 281 281 281 281
307 308 309 309 307 303 303 301 301 301 301 300 299 297 296 297 296 295 293 293 292 291 289 288 288 288 288 287 287 287 286 284 283 282 282 282 282 282 281 281 281 281 281 282
308 307 305 303 303 302 301 301 300 299 298 298 297 296 295 296 294 293 292 290 289 290 288 288 288 287 287 287 286 286 285 284 283 281 282 282 282 281 281 281 281 281 280 280
304 303 302 301 301 301 300 300 298 297 297 296 295 295 294 293 292 291 289 288 288 288 288 288 288 287 287 286 286 285 285 284 282 282 282 281 281 281 280 280 280 280 279 279
301 301 300 300 300 300 300 298 296 294 294 294 293 293 292 290 289 288 288 288 288 288 288 289 288 287 286 286 286 285 284 283 282 282 281 281 280 280 280 279 279 279 279 279
299 299 299 299 299 299 297 294 295 295 294 293 290 289 289 288 288 288 288 288 287 289 290 289 288 287 286 285 285 284 282 281 281 281 280 280 280 279 279 278 278 278 278 278
298 299 298 297 297 298 297 296 296 294 291 289 289 289 288 288 288 288 288 288 289 289 289 288 288 287 286 286 285 283 282 281 280 281 280 279 279 279 278 278 277 277 277 277
297 298 297 296 296 297 296 295 293 289 289 289 288 288 288 288 288 289 289 290 291 290 289 289 288 287 286 285 285 283 283 281 280 279 279 279 279 278 278 277 277 276 276 276
297 297 297 296 294 295 294 291 289 290 289 289 290 290 290 290 289 288 288 289 289 289 288 288 287 287 286 286 285 284 283 281 279 279 279 278 278 278 277 277 276 276 275 275
296 296 296 296 294 294 292 289 290 289 289 289 290 289 288 287 287 286 286 287 286 287 287 286 286 286 286 285 285 284 283 282 279 278 278 277 277 277 276 275 275 275 274 274
296 296 295 294 293 293 289 290 290 289 289 289 289 288 287 286 286 287 286 286 286 286 286 286 286 286 286 285 285 284 283 282 280 278 277 277 276 276 276 275 275 274 274 273
295 294 294 292 292 290 289 290 289 289 289 290 289 287 286 286 286 286 285 286 286 286 286 286 286 286 286 285 285 284 283 282 280 278 277 277 276 276 275 275 274 274 273 273
294 293 292 292 291 290 291 290 289 290 290 290 289 286 286 286 286 286 286 286 286 286 286 286 286 286 286 285 285 284 283 282 282 280 278 277 276 276 275 275 274 274 273 273
293 292 291 291 289 290 290 289 289 290 290 290 288 286 285 285 285 285 285 285 285 285 286 285 286 286 286 285 285 284 283 282 282 281 280 277 276 276 275 274 274 274 273 273

GFSNGP_850_thetae_006.txt.gz
Theta_e
319 319 318 318 318 318 319 319 319 319 320 319 319 318 316 315 315 314 314 313 313 312 311 309 309 309 306 304 302 301 299 298 297 297 297 297 295 294 293 292 292 291 290 289
318 318 318 317 318 318 317 317 318 319 319 318 316 315 315 315 314 314 313 312 311 310 308 308 308 308 304 301 301 299 298 299 299 298 296 295 294 293 292 292 291 289 289 288
318 316 315 317 316 318 318 318 318 318 317 317 316 315 315 314 314 313 312 311 311 309 307 308 307 305 303 300 300 300 300 299 297 296 295 294 293 292 291 290 289 288 288 288
316 314 319 317 317 316 317 317 317 316 315 315 315 315 314 314 312 311 310 310 308 307 307 307 306 305 303 302 301 300 298 297 296 295 293 293 292 291 289 289 288 288 287 287
318 319 317 316 316 316 316 316 315 316 316 316 315 314 313 312 311 310 309 308 306 306 306 305 303 303 302 301 300 298 297 295 294 293 292 292 291 289 288 288 287 286 286 286
321 319 318 316 314 314 315 317 316 315 315 315 313 314 312 311 310 310 308 306 306 305 305 302 302 300 299 299 298 296 295 294 293 292 291 290 289 288 287 287 286 286 285 285
317 317 316 315 315 315 318 318 314 315 314 313 313 312 311 310 310 309 307 305 305 304 301 301 300 299 298 296 296 296 294 292 291 291 290 289 288 287 286 286 285 285 285 284
313 317 318 315 317 316 315 315 314 313 312 312 311 311 311 310 309 306 306 304 304 301 300 299 299 298 296 295 293 293 292 291 290 290 289 288 287 286 285 285 285 285 284 283
315 316 314 314 314 315 313 314 312 312 312 311 310 309 309 309 308 307 304 304 301 300 300 298 297 295 294 294 293 292 291 290 289 288 288 287 286 285 285 285 284 283 283 282
313 313 313 313 313 313 313 312 311 311 310 309 308 305 305 307 307 304 303 301 299 299 298 297 296 293 293 292 292 291 289 288 288 288 287 287 285 285 284 284 283 283 282 282
312 312 312 312 313 312 312 312 310 309 307 304 303 303 303 305 304 301 300 298 298 298 297 296 294 293 291 291 290 289 288 287 288 288 287 285 285 284 284 283 282 282 282 282
313 312 312 312 312 312 311 310 307 305 303 302 303 304 304 302 300 299 297 297 298 297 295 294 293 292 291 290 289 288 287 287 287 286 285 285 284 283 283 282 282 282 282 282
312 311 311 311 311 310 308 305 304 302 302 303 302 301 299 299 298 296 297 298 296 294 293 292 292 291 290 289 288 288 287 287 286 285 284 283 283 282 282 282 282 282 282 281
310 310 308 309 309 307 304 303 302 302 301 300 299 298 297 297 297 297 296 294 293 293 292 292 289 289 288 288 287 287 287 286 284 284 283 283 282 282 282 282 281 281 281 281
308 308 307 305 304 303 302 301 301 301 299 297 297 296 297 296 296 295 294 293 291 290 290 288 288 287 287 287 287 287 286 285 284 284 282 282 282 282 282 281 281 281 281 281
306 304 303 302 302 301 301 300 301 300 296 295 295 294 294 293 293 293 292 290 288 288 288 288 288 288 288 287 286 286 286 286 285 283 282 282 281 281 281 280 280 280 280 279
302 302 301 301 300 300 300 300 300 298 294 293 293 293 293 292 291 290 289 288 288 288 288 288 288 288 287 287 285 285 285 285 283 283 282 282 281 280 280 279 280 280 279 279
301 300 300 299 299 299 299 299 299 295 294 293 293 292 289 289 288 288 288 288 288 287 288 290 289 288 288 286 285 285 284 283 283 282 282 281 280 280 280 279 279 279 279 279
299 298 297 297 298 298 297 297 299 296 295 295 290 289 289 288 288 288 288 288 288 289 290 289 289 288 288 286 286 285 283 282 282 281 281 280 280 279 279 278 278 278 278 278
296 295 296 297 297 297 296 295 297 295 295 290 290 289 288 288 288 288 288 289 290 291 290 289 288 288 287 287 286 285 284 284 282 281 280 280 280 279 279 278 278 277 277 277
295 295 295 296 297 297 297 295 295 294 291 290 290 289 289 289 289 289 288 287 287 288 287 288 287 286 286 286 286 285 284 284 282 281 280 279 279 279 278 277 277 277 276 276
295 295 295 296 296 296 296 295 294 292 289 290 289 289 289 289 287 287 287 287 286 286 286 286 287 286 286 286 286 285 284 283 282 280 280 279 278 278 277 277 277 276 276 275
295 295 296 296 296 296 295 294 293 289 290 289 289 289 289 287 286 286 286 286 286 286 286 286 286 286 286 286 285 285 284 282 281 280 279 278 278 277 277 276 276 275 275 274
295 295 295 295 294 294 294 292 290 290 290 289 289 289 288 287 286 287 287 286 286 286 286 285 286 286 286 286 285 284 283 282 281 280 279 278 277 277 277 276 275 275 274 274
295 296 295 294 293 293 292 290 290 290 289 289 289 289 287 286 286 286 286 286 286 286 286 285 286 286 286 286 285 284 284 283 282 281 279 278 278 277 276 276 275 274 274 273
295 295 293 293 293 291 290 290 290 290 290 290 290 290 288 286 286 286 284 285 285 285 285 285 285 285 286 286 285 284 284 283 283 282 281 279 278 277 277 276 275 275 274 273
294 293 294 292 291 291 290 291 290 290 290 290 290 289 287 286 286 285 285 285 286 286 284 284 284 284 284 285 284 284 284 283 283 282 282 280 279 278 277 277 276 275 274 274

GFSNGP_850_thetae_009.txt.gz
Theta_e
317 318 318 317 317 316 317 315 316 316 316 315 314 313 314 314 313 314 313 312 311 310 310 307 306 307 307 307 306 301 300 299 297 296 296 296 297 297 294 293 293 292 292 291
316 317 318 316 315 315 314 314 315 315 315 313 313 314 314 313 313 312 312 311 310 309 309 306 306 308 307 306 304 301 299 299 298 298 299 298 296 295 294 293 292 291 291 289
319 314 313 310 312 314 315 313 314 313 313 313 313 313 314 313 312 312 311 310 310 309 307 306 307 306 305 303 302 302 301 300 299 299 297 295 294 293 293 292 291 289 288 288
317 310 317 313 313 313 313 313 313 314 314 314 314 313 312 312 312 312 310 310 309 306 305 306 305 304 302 301 301 301 299 297 296 295 295 293 293 292 292 290 289 288 287 286
315 314 314 314 314 314 312 312 315 314 314 314 313 312 311 311 312 310 310 309 307 306 305 304 304 301 299 298 298 297 297 296 294 294 293 293 291 291 289 289 288 286 286 285
309 311 312 310 312 315 314 314 313 314 314 313 312 310 310 311 309 309 310 308 306 305 304 304 301 300 299 298 296 296 295 294 294 293 292 291 290 289 288 287 286 285 285 285
305 311 309 310 312 315 312 315 313 313 313 312 312 311 310 308 309 308 309 307 305 304 303 301 300 299 298 296 295 295 294 293 292 291 290 290 289 288 287 286 285 285 284 284
305 314 311 312 311 309 311 312 311 312 312 311 311 309 308 305 304 308 307 306 304 303 300 300 299 297 295 294 293 293 293 291 290 289 289 288 287 287 286 285 284 284 283 282
309 308 311 311 311 311 311 311 312 312 311 307 306 305 303 302 305 306 305 303 302 299 299 299 296 295 294 294 293 292 291 289 288 288 287 287 287 285 285 284 284 283 282 282
308 311 311 311 311 311 311 312 311 310 308 305 305 303 303 304 303 303 301 299 298 298 297 296 295 294 293 293 292 291 289 288 287 287 287 287 285 284 284 284 283 282 282 282
310 310 310 310 310 311 311 310 307 305 303 302 302 302 302 300 298 298 298 297 297 297 296 295 294 293 292 291 291 290 289 287 287 287 286 285 284 284 283 282 282 281 282 282
311 310 310 311 310 309 308 305 304 302 302 302 302 300 297 297 296 297 297 298 297 294 294 294 293 292 291 291 291 289 287 286 286 286 285 283 283 282 282 282 282 281 282 282
311 311 310 309 308 307 306 302 302 301 301 301 300 296 296 296 296 297 295 294 293 293 293 292 292 291 289 288 287 287 287 286 286 285 284 283 282 282 281 281 281 281 281 281
310 310 308 307 305 302 302 301 301 301 301 300 296 295 295 296 296 295 294 293 292 292 290 290 289 288 287 287 287 286 286 286 285 284 284 283 282 282 281 281 280 280 280 280
308 306 303 303 302 301 300 300 300 300 300 299 294 293 294 294 293 293 293 293 291 288 289 289 288 287 288 287 286 286 286 286 285 284 283 282 282 281 280 280 279 280 280 280
304 302 301 300 300 300 299 298 299 299 299 297 293 293 293 293 292 290 290 290 288 288 288 287 287 288 288 287 286 286 285 285 285 284 282 282 281 280 280 280 279 279 279 279
302 300 299 299 298 297 298 298 297 297 298 296 294 293 292 289 289 289 288 288 288 287 287 288 290 289 288 287 286 286 285 283 283 282 282 282 281 280 280 279 278 279 278 278
299 299 296 295 294 294 295 296 297 297 296 297 295 295 289 289 289 288 288 288 287 288 288 290 289 288 287 287 287 286 284 283 282 281 281 281 280 279 279 278 278 278 278 278
298 297 294 294 293 294 296 296 297 296 295 296 296 292 289 289 288 288 288 288 289 289 289 288 288 288 287 287 286 286 285 284 283 281 280 280 279 279 279 278 278 277 277 277
297 295 295 294 293 294 295 295 297 296 295 295 294 289 290 289 289 289 289 288 287 287 286 286 286 286 286 286 286 286 285 284 283 281 280 279 279 279 278 278 277 277 276 276
296 296 295 293 293 294 295 295 296 295 295 294 290 290 289 289 289 287 286 286 286 285 286 286 286 285 285 285 286 285 285 284 282 281 280 279 279 278 277 277 277 276 276 275
295 294 292 293 294 295 294 294 294 294 293 291 290 290 289 289 288 287 286 286 286 285 285 286 286 285 285 286 285 285 284 283 281 280 280 279 278 277 277 277 276 276 275 275
293 292 293 294 295 295 295 294 293 293 292 290 290 289 289 288 287 286 286 286 286 285 285 286 285 286 286 286 286 284 283 282 281 281 280 279 278 277 277 276 276 275 275 274
292 292 294 295 295 295 294 292 293 291 291 290 289 289 289 288 286 286 287 286 286 285 285 285 284 285 286 286 286 284 282 282 282 281 280 279 278 278 277 276 276 275 274 274
293 293 293 294 294 293 292 292 291 291 290 290 289 289 289 287 286 285 285 285 285 285 286 284 284 284 285 286 285 283 283 283 283 281 281 280 279 278 277 276 276 275 274 273
293 293 293 294 293 292 292 291 290 290 290 290 290 290 290 288 286 285 285 285 284 285 285 284 284 284 283 283 284 283 284 284 283 283 282 281 280 278 277 277 276 275 274 273
293 293 293 293 293 292 291 290 290 290 291 291 290 290 289 288 286 286 285 284 285 285 285 285 284 284 284 283 283 283 284 284 284 283 282 281 280 279 278 277 277 275 274 274

GFSNGP_850_thetae_012.txt.gz
Theta_e
315 315 316 317 317 316 316 314 313 315 314 313 313 313 313 313 313 312 312 312 311 309 307 308 305 304 306 306 305 304 302 301 298 297 296 296 296 296 296 296 295 292 292 291
315 315 315 316 316 314 314 314 313 313 312 313 313 313 313 312 312 312 312 312 310 308 308 307 305 305 305 304 302 300 300 301 300 298 298 297 298 294 293 292 292 292 292 290
316 311 312 314 312 312 312 312 311 311 311 312 312 312 312 312 311 311 312 310 308 309 309 306 305 305 304 302 299 298 299 299 299 298 296 294 293 293 292 292 292 291 289 288
313 311 316 313 311 311 311 311 311 313 313 313 312 312 312 311 310 311 309 308 308 309 307 306 305 304 302 299 297 297 296 296 296 295 295 293 292 292 291 291 289 289 288 287
310 314 313 312 312 313 313 312 313 313 312 312 312 311 310 310 310 308 308 308 306 308 306 305 303 302 300 299 297 297 296 296 295 293 292 292 292 291 290 289 288 287 286 285
310 313 314 308 310 314 314 311 313 312 311 311 311 312 311 309 305 303 303 305 307 307 305 303 302 300 299 299 296 296 295 294 293 292 292 290 289 289 288 287 287 286 285 284
300 308 305 307 310 312 305 309 311 310 310 311 311 310 308 304 302 303 304 307 306 305 303 301 299 298 296 294 293 293 293 293 292 290 289 289 288 287 287 286 285 284 284 283
305 309 311 310 310 310 309 310 310 310 311 310 307 306 303 304 304 303 301 300 301 300 299 298 299 297 296 293 294 293 292 291 289 288 287 287 287 287 286 285 284 283 283 282
307 306 308 310 310 310 310 310 310 310 309 307 304 304 303 302 301 298 297 297 297 297 297 297 296 295 295 294 293 292 291 289 288 287 287 287 287 285 284 284 283 282 281 281
308 310 310 310 310 310 310 310 309 306 304 303 302 301 301 300 296 297 296 297 297 297 297 296 295 294 293 293 291 291 290 290 288 287 286 286 285 283 283 282 282 281 281 281
311 310 310 310 310 310 309 307 305 303 302 302 302 301 299 296 295 296 296 296 297 296 293 293 293 292 292 291 291 290 289 287 286 286 286 285 284 283 282 282 281 281 280 281
312 311 310 310 309 308 307 304 302 302 301 301 301 300 297 295 296 296 297 295 294 293 293 293 291 291 291 290 288 287 287 286 286 285 285 284 283 282 282 281 281 280 280 281
311 311 311 309 306 305 302 301 300 300 299 300 300 299 295 294 295 295 295 294 293 292 292 292 291 290 288 287 287 287 286 286 286 285 284 283 282 282 281 281 280 280 280 280
311 310 309 307 302 301 300 300 299 298 299 300 299 298 294 293 293 293 293 293 293 292 289 289 290 288 287 287 287 287 286 285 285 285 284 283 282 281 281 280 279 279 279 279
307 305 303 301 301 300 299 297 298 298 297 297 297 297 294 292 293 292 291 291 291 289 288 288 287 287 288 288 287 286 286 285 284 284 283 282 282 281 280 280 279 278 279 279
302 301 300 298 295 294 294 294 296 296 297 296 296 297 294 293 292 289 288 288 288 288 287 287 287 288 289 288 287 287 285 284 283 282 282 282 281 280 280 279 278 278 278 278
300 299 298 295 294 292 292 293 294 294 295 296 296 296 295 293 291 288 289 288 288 287 287 288 289 289 289 287 287 286 285 283 283 282 282 281 280 279 279 278 278 277 277 277
299 297 295 294 294 292 292 292 294 294 295 296 296 295 295 293 289 289 288 287 287 288 289 289 287 286 287 287 286 286 285 284 283 282 281 280 279 279 278 278 277 277 277 277
297 296 295 295 294 292 293 294 294 294 295 295 295 295 294 290 289 289 288 288 288 287 286 285 285 284 285 285 285 285 285 284 283 282 281 280 279 278 278 278 277 277 276 276
295 294 295 295 293 292 293 293 294 294 294 294 294 294 292 289 289 289 289 287 286 285 285 285 285 284 284 284 285 285 285 284 282 281 280 279 279 278 278 277 277 276 276 275
292 293 294 293 292 291 292 294 295 295 294 293 293 292 290 290 289 289 287 286 285 285 285 285 285 285 284 285 285 284 284 282 281 281 280 279 279 278 277 277 276 276 275 275
293 293 293 292 292 292 293 294 294 293 292 292 292 290 290 289 289 288 286 286 285 285 285 285 285 284 285 285 286 285 283 282 281 281 280 280 279 278 277 276 276 275 275 274
293 292 293 293 293 293 293 293 293 292 292 291 291 290 289 289 288 287 286 285 285 285 284 285 284 284 285 286 285 283 282 282 282 281 280 280 279 278 277 276 276 275 275 274
292 292 292 293 293 293 293 293 292 292 292 291 290 289 289 289 288 287 285 285 285 284 284 284 283 283 283 284 284 282 282 282 282 282 281 280 280 279 278 277 276 276 274 273
293 293 293 293 293 292 292 292 293 292 291 290 290 289 289 289 288 286 285 285 284 284 285 284 284 283 283 282 282 282 282 282 283 282 281 281 280 279 278 277 276 275 274 273
293 293 293 293 292 292 293 293 292 291 290 290 289 289 289 289 288 287 285 285 284 284 284 284 284 283 283 283 283 282 282 283 283 283 282 282 281 280 279 277 277 275 274 273
292 292 292 291 291 291 291 291 291 290 290 290 290 290 289 289 288 287 285 284 284 284 284 283 283 283 282 283 283 283 282 283 283 283 282 282 281 280 279 278 277 276 275 274

GFSNGP_850_thetae_015.txt.gz
Theta_e
313 313 313 314 315 315 315 313 315 314 313 312 311 311 313 313 312 311 311 311 312 310 308 307 309 306 305 304 304 303 301 299 300 299 297 295 295 295 295 295 294 292 292 292
313 313 314 315 314 313 313 313 312 311 311 310 313 312 312 312 311 311 310 310 309 307 307 306 306 306 305 304 303 301 298 297 298 298 297 296 295 293 293 293 293 292 292 291
310 310 309 308 310 312 312 311 311 310 310 312 311 311 312 311 311 310 310 307 305 302 304 304 306 306 305 303 301 298 296 296 295 295 294 294 294 294 293 293 291 290 289 288
311 311 313 311 310 310 310 310 309 311 312 312 311 311 310 311 309 308 305 303 302 301 303 306 307 305 303 301 300 298 297 297 296 296 295 293 292 291 290 290 289 288 288 287
313 312 310 311 310 312 312 311 311 312 311 310 310 310 310 309 308 306 303 303 303 304 305 306 304 302 300 298 299 296 296 294 293 293 293 293 291 290 289 288 287 287 286 285
309 313 313 308 307 312 312 312 311 312 310 309 309 310 309 306 304 301 302 304 301 299 300 300 299 299 298 297 293 294 293 293 292 292 291 289 289 288 287 287 286 286 285 284
307 311 306 305 308 309 308 308 312 310 309 309 308 309 306 305 302 303 301 298 296 296 297 298 297 298 298 295 294 293 293 292 291 289 288 287 287 287 287 286 285 284 283 283
304 307 309 308 310 310 309 310 309 309 310 309 306 304 302 302 302 300 296 296 296 296 296 297 296 296 296 294 294 292 292 291 290 289 288 287 286 286 285 284 284 283 282 282
306 308 308 310 310 310 309 309 309 309 307 305 303 301 301 302 300 297 295 295 296 295 296 295 296 295 294 292 292 292 290 290 290 288 286 286 286 285 284 283 282 282 281 281
309 309 309 310 311 310 310 310 309 306 303 300 300 299 301 301 298 295 295 295 296 295 294 293 293 292 292 291 291 290 290 289 287 286 286 285 285 284 283 282 282 281 281 280
310 311 311 311 310 310 310 308 304 303 301 298 299 300 301 299 298 294 294 295 295 294 293 292 292 291 291 291 290 289 287 287 286 286 285 285 284 284 282 282 281 280 280 280
311 312 311 310 310 308 307 303 301 299 297 298 299 300 300 299 296 293 293 294 294 293 292 292 292 291 290 289 287 287 287 286 286 285 285 284 283 283 282 281 280 280 279 280
311 311 311 310 306 302 300 299 299 299 298 298 297 299 298 297 295 293 293 293 293 293 293 292 289 290 289 287 287 287 287 286 286 285 284 284 283 282 281 280 280 279 278 279
311 310 308 303 300 299 298 299 297 296 298 297 297 297 296 297 295 292 292 292 291 291 291 289 288 288 287 287 288 287 287 286 285 284 283 283 282 281 281 280 279 278 278 278
307 306 304 300 297 295 293 293 293 292 293 294 295 295 296 296 295 293 292 290 289 288 288 288 287 287 287 287 288 287 287 286 285 283 283 282 281 281 280 279 278 278 277 278
302 299 297 296 294 294 294 293 292 291 292 293 294 295 296 295 295 294 292 289 289 288 288 287 287 287 289 289 288 287 286 285 283 282 282 281 281 280 279 278 278 277 277 277
299 300 296 295 295 294 294 292 292 293 294 294 294 295 295 295 294 294 291 289 289 288 287 287 288 288 287 285 286 286 286 285 283 282 282 281 280 279 278 278 278 277 277 276
297 297 296 294 294 294 294 291 292 293 294 294 294 293 293 294 293 292 289 289 288 287 288 288 286 285 284 284 285 285 285 284 284 283 282 281 280 279 278 278 277 277 276 276
294 294 292 292 294 294 293 292 291 293 294 294 295 293 293 293 292 290 289 289 288 288 287 285 285 285 284 283 284 284 285 284 284 282 281 280 279 279 278 277 277 276 276 275
291 292 292 293 293 293 293 292 292 293 293 294 292 291 291 292 291 290 289 288 288 286 285 285 285 284 284 284 285 285 285 283 282 282 281 280 279 278 278 277 276 276 275 275
292 292 292 292 291 292 292 292 293 293 292 292 292 291 292 291 290 289 288 288 286 285 285 284 284 284 283 284 285 285 284 282 282 281 281 280 280 279 278 277 276 276 275 274
292 292 291 292 292 292 292 292 293 292 292 292 291 292 291 290 289 289 288 287 286 285 284 283 284 283 283 285 285 285 282 282 281 281 281 280 280 279 278 277 276 276 275 274
291 291 292 292 292 293 293 293 292 292 292 292 292 291 291 290 289 289 288 287 285 284 284 284 283 283 283 283 284 283 282 282 281 281 281 281 280 279 279 278 277 276 275 274
292 292 292 292 292 292 292 292 291 292 292 292 291 290 289 289 289 288 287 285 285 283 283 283 283 283 282 282 282 281 282 282 281 282 282 281 280 279 279 278 277 276 274 274
292 292 292 292 292 292 291 291 291 291 291 291 290 289 289 289 289 288 287 285 285 284 284 283 283 283 283 282 282 282 282 281 282 282 282 282 281 280 279 278 277 276 275 274
292 292 291 292 291 291 290 290 290 290 290 290 289 289 289 289 288 287 288 286 284 284 283 283 283 282 282 282 282 282 282 283 282 283 282 282 282 281 280 279 277 276 275 274
291 291 291 291 290 290 290 290 290 291 290 290 290 289 289 289 288 287 286 285 284 283 283 283 282 281 282 282 282 282 282 282 282 282 282 282 282 282 281 280 278 277 275 275

GFSNGP_850_thetae_018.txt.gz
Theta_e
311 311 311 313 313 313 313 312 315 313 312 312 309 311 312 312 312 311 311 310 309 307 303 302 302 302 304 306 305 303 302 299 297 296 297 297 295 294 295 294 292 292 292 292
311 310 310 311 311 312 312 312 312 313 312 309 312 312 311 310 310 310 309 307 305 303 302 302 303 305 305 304 303 301 299 297 296 295 296 294 294 294 294 294 294 293 292 290
307 308 307 306 308 310 311 310 310 311 309 310 311 310 309 310 309 309 308 305 303 302 302 304 304 303 303 301 300 298 298 298 298 296 296 295 294 292 292 291 290 289 289 288
306 305 310 310 309 310 310 308 308 307 309 311 310 309 309 309 308 306 305 302 302 303 300 297 296 296 297 299 298 297 297 296 296 294 293 293 292 292 290 289 288 288 287 286
313 311 309 312 309 311 310 309 309 309 311 310 309 308 308 308 307 305 301 302 302 297 296 296 297 296 296 297 297 295 294 293 292 292 292 291 290 288 288 287 287 286 286 285
308 312 312 308 307 312 311 310 308 312 310 309 309 309 309 307 304 301 302 301 296 295 295 296 296 296 296 296 295 294 292 292 291 290 289 288 287 287 287 286 286 285 284 283
310 312 310 306 307 308 308 309 311 310 310 309 307 307 303 300 299 302 301 297 296 295 295 295 295 296 296 295 295 292 291 291 291 290 289 288 286 286 286 285 284 284 283 282
304 307 307 307 309 309 309 309 310 310 309 309 305 304 300 298 299 301 300 297 295 294 294 294 294 294 295 294 293 292 291 290 290 289 287 286 286 285 285 284 283 283 282 282
308 306 307 308 309 310 310 309 309 308 308 306 302 299 298 298 300 301 298 295 294 293 295 294 293 292 292 292 291 291 290 290 289 287 286 285 285 284 284 284 283 282 281 281
308 309 308 311 311 312 310 309 309 306 303 299 298 297 299 300 301 299 297 295 293 293 294 292 292 291 291 291 291 290 289 287 287 286 286 285 285 284 283 282 282 281 280 280
310 311 311 311 311 310 310 307 304 301 300 298 297 297 299 299 300 299 296 294 293 293 293 292 292 292 291 290 289 288 287 287 286 286 285 285 284 283 282 281 281 280 279 279
311 311 311 310 308 307 304 299 297 297 297 298 299 299 298 297 297 297 296 294 293 292 292 292 292 292 290 289 288 287 287 287 287 286 285 284 283 283 282 281 280 280 279 278
311 311 309 306 305 302 300 297 296 294 293 293 295 296 295 296 296 296 296 295 293 292 292 290 290 290 288 288 287 287 287 287 287 286 285 284 283 282 282 281 280 279 278 277
310 309 307 303 302 297 293 294 294 295 293 292 292 293 293 293 294 295 295 295 293 292 289 289 288 288 287 287 287 287 287 287 286 285 284 283 282 281 280 280 279 278 277 277
305 305 301 297 294 294 295 295 294 292 291 291 292 293 293 293 294 295 295 295 293 292 289 289 288 287 287 287 288 288 287 286 286 285 284 283 282 281 279 279 278 278 277 277
297 297 297 297 296 295 294 294 294 292 291 292 293 293 294 293 293 293 294 294 293 291 289 289 287 287 288 288 287 286 285 285 285 284 283 283 281 280 279 278 278 277 277 276
299 298 295 294 294 294 294 294 294 292 292 291 292 293 293 294 294 292 292 292 292 289 290 288 287 288 287 285 284 284 285 284 284 284 283 282 281 280 279 278 277 277 276 276
294 293 292 292 292 293 292 292 293 293 292 292 292 293 293 292 291 290 290 291 289 289 288 287 287 286 285 284 284 283 283 284 284 283 283 282 281 280 279 278 277 276 276 275
292 291 291 292 292 292 291 291 292 292 292 292 292 292 291 291 291 291 291 291 289 289 287 287 286 284 284 284 284 285 285 285 284 283 282 282 281 280 279 278 277 276 276 275
292 292 292 292 291 291 292 292 292 292 292 292 292 292 291 291 291 291 291 289 289 288 287 285 284 284 283 283 282 283 284 283 282 281 281 281 281 280 279 278 277 276 275 275
292 292 291 291 291 291 291 292 292 292 292 292 292 291 291 291 292 291 289 289 288 287 285 285 284 283 283 282 282 283 282 282 282 281 281 281 281 280 279 278 277 276 275 274
292 291 291 291 292 292 292 291 292 291 291 291 291 292 292 291 291 289 289 288 288 286 286 284 283 282 282 282 281 282 282 282 282 281 281 281 281 280 279 279 278 277 276 274
292 291 292 292 292 291 291 291 290 290 290 290 290 290 290 289 289 289 288 288 287 286 285 283 283 283 282 282 281 281 281 281 281 281 281 282 282 281 279 279 278 277 276 274
292 292 292 291 291 291 291 291 290 289 290 290 290 289 290 289 289 288 289 288 286 285 284 283 283 283 282 282 282 282 282 281 281 281 282 282 282 281 281 279 279 277 276 274
292 292 291 291 291 291 290 290 290 290 290 290 290 289 289 289 289 289 288 287 286 285 284 283 283 282 282 282 282 281 282 282 283 282 282 282 282 282 281 281 280 278 276 275
292 291 291 291 290 290 289 290 290 290 290 290 289 289 289 289 289 288 287 286 287 284 283 283 283 282 282 281 281 281 281 282 282 282 282 282 282 282 281 281 280 279 277 275
291 291 291 290 290 290 289 290 290 290 289 290 289 289 289 289 288 288 287 286 285 283 283 282 282 282 281 280 280 281 281 281 282 282 281 282 282 282 281 281 280 279 278 276

GFSNGP_850_thetae_021.txt.gz
Theta_e
313 313 312 313 314 314 315 315 317 316 315 314 313 312 312 310 310 310 310 310 308 304 302 302 303 301 297 296 296 298 299 297 298 297 296 295 294 294 294 293 292 292 293 293
313 311 311 312 312 312 313 314 314 314 315 313 311 312 310 310 309 309 308 306 304 302 301 302 298 296 296 296 297 298 297 297 296 297 297 296 293 292 292 292 291 290 289 289
313 308 309 312 309 311 312 312 313 313 312 310 312 310 310 309 309 308 306 303 301 302 301 296 295 295 296 296 296 296 296 294 294 294 293 293 292 292 291 290 289 288 288 287
314 308 315 312 310 311 311 311 310 310 309 310 312 310 308 308 307 306 303 300 301 301 297 295 295 295 296 295 296 295 294 293 292 292 291 291 290 288 287 287 287 287 286 286
313 312 312 313 311 311 311 312 309 309 311 311 310 308 311 307 306 303 300 301 302 298 297 295 294 295 295 296 295 294 293 291 292 291 290 290 289 288 287 286 286 285 285 284
311 314 315 312 308 311 310 312 308 311 310 310 310 311 310 304 303 299 300 302 300 298 295 294 293 294 294 294 295 295 293 292 291 290 290 289 287 286 286 285 285 284 284 283
312 311 312 309 308 308 312 313 311 311 309 309 309 308 303 302 298 299 300 301 299 297 294 293 294 293 292 292 292 293 292 290 290 290 289 287 286 285 285 285 284 284 283 282
306 310 311 306 309 311 311 309 310 309 308 307 304 303 300 298 299 299 299 301 298 296 294 293 293 292 291 291 291 291 291 290 290 289 287 286 285 285 285 284 283 283 282 281
310 311 307 307 309 309 308 309 308 307 304 302 300 298 297 297 297 297 299 300 298 295 294 293 293 292 291 291 291 291 290 290 288 287 286 285 285 285 284 283 282 281 281 280
309 311 310 311 311 310 309 308 306 304 301 300 297 297 297 297 297 296 296 298 297 296 294 293 292 292 292 292 291 289 289 287 287 287 286 285 285 284 283 282 281 280 280 280
310 311 311 310 310 309 306 305 303 299 297 296 295 295 295 295 296 296 297 296 296 296 294 293 292 292 292 291 289 289 288 287 287 287 286 285 284 283 283 282 281 280 279 279
312 311 311 309 305 305 302 300 296 295 294 295 294 293 293 293 293 293 293 293 295 295 295 293 292 291 289 289 288 288 287 287 287 287 286 285 284 283 283 281 280 279 278 277
311 311 309 306 302 299 296 294 295 296 295 293 292 291 292 292 292 292 292 293 295 295 295 293 292 289 288 287 287 286 286 287 287 286 285 284 283 283 282 281 280 278 278 277
308 307 303 301 298 294 295 296 296 294 293 292 291 290 291 292 292 292 293 293 293 293 294 294 291 289 288 287 286 286 287 286 286 285 284 283 283 282 281 280 279 278 278 277
302 304 299 295 296 297 296 294 293 293 293 293 292 291 291 291 292 293 293 293 292 292 293 292 290 289 287 287 287 286 285 285 285 285 284 283 283 282 281 280 279 278 277 277
297 297 298 297 294 292 292 292 292 292 293 294 293 292 292 291 292 292 291 291 290 290 290 291 289 288 287 287 286 284 284 284 284 284 284 283 282 281 281 280 278 277 277 276
297 293 291 291 291 291 292 292 292 291 291 291 291 291 291 292 292 291 290 290 291 291 290 288 289 287 287 286 284 284 283 283 283 284 283 283 282 281 280 279 278 277 276 275
292 291 292 292 292 292 291 291 291 291 291 291 291 292 292 292 292 291 291 290 291 291 289 288 288 287 286 284 284 284 283 284 284 284 283 282 281 281 280 279 278 277 276 275
291 291 291 292 291 291 291 291 291 291 291 292 292 292 292 292 291 291 291 291 291 289 288 288 287 286 284 283 282 282 283 284 283 283 282 281 281 281 280 280 278 277 276 275
291 291 292 292 291 291 291 291 291 291 291 291 291 290 290 291 291 292 291 290 289 288 288 287 285 284 283 282 282 282 281 282 281 281 281 281 281 281 280 280 279 277 276 275
291 292 292 291 291 291 291 291 291 291 291 290 290 289 289 290 290 289 289 289 288 288 287 286 284 283 282 282 281 282 281 281 281 281 281 281 281 281 281 280 279 278 277 276
292 292 292 292 291 291 291 291 290 291 290 290 289 289 288 289 289 289 288 288 288 288 286 285 283 282 282 282 282 281 281 281 281 281 281 281 281 281 281 280 279 278 277 276
292 292 292 292 291 291 290 290 290 290 289 289 289 289 289 288 288 289 288 288 288 287 286 284 283 282 282 282 282 281 281 281 281 281 281 281 282 282 282 281 280 279 277 276
292 292 292 292 291 291 290 290 290 290 290 289 289 289 289 289 289 288 288 288 288 286 285 284 283 282 282 282 282 281 281 281 282 282 282 282 282 282 282 281 281 280 278 276
292 292 291 291 291 291 290 290 289 289 289 289 289 289 289 289 289 288 288 287 286 285 285 284 283 282 282 282 281 281 281 281 282 282 282 281 282 282 282 281 281 280 279 277
292 291 291 291 291 291 290 288 289 289 289 289 288 289 289 289 288 288 287 286 285 284 284 282 282 282 282 281 281 281 281 281 281 282 282 282 281 282 282 281 281 280 279 278
291 291 291 291 291 289 287 287 288 289 289 289 288 289 289 289 289 288 288 287 286 285 284 282 282 282 281 281 280 280 281 282 282 282 282 282 282 282 282 282 281 280 280 279

GFSNGP_850_thetae_024.txt.gz
Theta_e
316 316 315 316 316 315 316 317 318 317 316 316 315 315 314 314 313 312 312 311 310 307 304 303 301 298 298 298 298 299 298 298 298 298 297 297 296 294 294 295 294 293 292 290
317 315 315 315 315 315 316 316 316 316 317 315 313 313 314 313 312 312 311 310 307 303 303 301 298 297 297 298 298 298 297 297 297 295 295 295 295 294 292 291 290 290 289 289
321 313 314 318 315 314 315 315 315 316 315 313 313 313 313 312 312 311 310 307 302 303 301 299 298 297 297 298 298 297 296 296 295 294 293 292 291 291 290 290 289 288 288 288
319 316 322 315 314 314 314 314 314 314 314 313 313 313 312 312 310 309 303 301 301 302 300 299 297 296 296 297 297 296 295 295 293 293 292 291 291 290 289 288 288 288 287 287
317 316 315 314 313 314 313 314 314 313 313 313 312 312 313 309 304 303 299 300 302 301 299 298 297 296 296 296 296 296 294 294 293 292 291 290 290 289 288 287 287 287 286 286
312 317 316 314 313 312 312 315 313 313 312 312 310 311 312 302 302 300 300 301 301 300 299 298 296 295 295 294 293 294 293 292 292 291 290 290 288 287 287 286 286 286 285 284
314 316 315 314 311 310 315 316 311 311 311 309 309 306 302 301 299 300 300 300 300 299 299 297 296 295 294 293 293 292 292 292 291 290 289 287 287 287 286 286 286 284 283 282
312 314 315 310 311 314 313 312 311 312 309 308 305 302 299 299 299 299 298 297 299 299 298 297 296 295 294 293 293 292 292 291 290 289 288 287 287 286 286 286 285 284 283 283
314 315 313 312 311 311 312 312 310 307 304 303 301 299 299 299 299 298 299 299 298 298 297 296 296 295 294 294 293 292 291 290 289 288 287 287 287 286 286 285 284 283 282 282
314 312 313 313 312 309 308 307 304 303 302 299 299 298 298 297 297 297 297 296 295 295 295 295 296 295 295 294 292 291 290 289 288 288 287 287 286 286 285 284 283 282 282 281
314 313 312 312 310 307 305 303 301 298 297 297 298 297 295 295 294 294 294 294 294 294 295 295 295 295 294 292 291 290 289 288 288 287 287 286 285 285 283 283 281 280 280 280
314 312 312 307 305 303 303 298 297 297 297 297 295 294 293 293 293 293 293 294 294 293 293 293 293 293 293 291 289 289 288 288 287 287 286 285 285 284 284 282 281 279 278 278
311 310 307 304 303 298 297 297 297 297 296 295 294 294 293 293 292 292 293 293 293 293 293 292 293 293 291 289 289 287 286 286 286 286 286 285 284 284 283 283 281 280 279 277
306 306 302 300 299 297 297 297 296 295 294 294 294 294 294 293 292 292 292 292 292 292 291 290 290 290 289 289 287 286 287 287 285 285 284 284 283 283 282 282 281 281 279 278
304 303 302 298 297 298 296 295 294 294 293 293 292 292 292 292 292 292 292 292 291 291 291 291 290 289 288 288 287 287 286 285 284 284 284 284 283 282 282 281 280 280 280 278
299 298 296 295 294 294 294 293 293 293 292 292 292 292 292 292 292 292 292 292 291 291 291 291 290 288 288 287 287 285 284 283 283 283 284 283 283 282 281 281 280 280 279 277
299 295 294 294 293 293 293 293 292 292 292 292 292 291 291 292 291 291 292 292 291 291 291 290 288 287 287 287 285 284 284 284 283 283 284 283 282 282 281 280 280 279 279 276
294 294 293 293 293 293 293 292 292 291 291 291 291 291 291 290 290 290 290 291 291 291 290 289 288 287 287 285 284 283 283 283 284 283 283 283 282 281 280 280 280 279 278 277
293 293 292 293 293 293 291 291 291 291 291 290 291 291 290 289 289 289 289 290 290 289 288 288 287 287 285 284 282 282 283 282 283 283 282 282 282 281 281 280 279 278 277 277
291 292 292 292 292 291 291 291 291 291 290 290 290 290 289 289 289 289 289 289 289 288 288 287 286 285 283 282 282 282 282 282 282 283 282 282 282 281 281 280 279 278 277 277
290 291 291 292 292 291 291 291 290 290 290 290 290 289 289 289 289 288 288 288 288 288 288 287 285 284 283 283 282 282 282 282 283 282 282 282 282 282 281 280 280 279 278 277
291 291 292 292 292 292 291 291 291 290 290 290 290 289 289 289 288 288 288 288 288 288 287 285 284 283 283 282 283 282 282 282 282 282 282 282 282 282 281 281 280 279 278 277
291 292 292 292 292 291 291 291 290 290 290 290 289 289 289 288 288 289 289 288 288 288 286 285 284 283 282 282 283 283 282 282 282 282 282 282 282 282 281 281 281 280 279 277
291 292 292 292 291 291 291 291 291 290 289 289 289 289 289 288 289 289 288 288 288 287 286 285 284 283 282 283 283 282 282 281 281 282 282 282 282 282 282 282 281 281 280 279
292 292 292 291 291 291 291 291 290 289 289 289 289 289 289 288 289 288 288 288 286 285 285 284 284 283 283 283 282 282 281 281 282 282 282 282 282 282 282 282 282 281 280 280
292 292 291 291 291 291 290 289 288 288 288 288 289 289 289 288 289 288 288 287 287 286 286 285 284 283 283 282 282 281 281 281 281 282 282 282 282 282 282 282 282 281 281 280
291 291 291 291 291 290 290 288 287 287 287 288 288 288 288 288 289 289 289 288 288 287 286 285 284 283 282 282 281 281 281 281 282 282 282 282 282 282 282 282 282 281 281 280

GFSNGP_850_thetae_027.txt.gz
Theta_e
318 317 316 316 316 317 317 317 319 318 318 318 317 317 315 315 315 314 314 313 312 311 309 306 304 301 300 299 299 299 299 299 298 297 297 296 296 296 295 295 293 293 292 291
318 316 315 315 315 316 316 317 317 317 317 316 315 314 314 315 314 314 313 312 310 307 304 304 301 300 299 298 299 299 298 298 297 296 295 295 295 294 293 293 292 291 290 290
322 317 317 321 318 315 316 316 316 317 316 315 315 314 314 313 313 313 311 309 304 302 303 303 301 300 298 298 298 298 298 297 296 295 295 294 293 293 292 292 290 290 289 289
320 317 323 316 315 315 315 315 315 315 315 315 314 314 313 311 310 309 307 303 302 302 303 301 300 299 298 297 297 297 297 296 295 294 294 293 292 292 291 289 289 289 289 288
320 318 315 315 316 315 315 315 315 315 315 314 313 313 312 309 306 305 303 302 302 303 302 301 300 300 298 297 296 295 295 295 294 294 293 292 291 290 289 289 288 288 288 287
316 319 318 315 315 313 313 316 315 314 314 313 313 315 311 307 305 303 302 302 301 301 300 300 300 299 298 297 296 295 294 294 294 293 292 291 290 289 289 288 288 288 287 285
317 318 316 314 313 313 316 317 314 313 312 309 309 306 304 304 303 302 301 300 299 299 300 300 299 298 298 297 296 295 295 294 294 293 291 290 289 289 288 288 288 287 286 284
316 317 316 313 313 316 315 314 313 311 307 305 305 304 303 302 301 301 300 300 299 299 298 297 297 297 297 297 296 295 295 294 293 292 291 289 289 288 288 288 287 286 285 284
317 318 315 313 314 313 313 312 309 307 304 303 302 302 301 300 300 299 298 297 297 296 296 295 295 295 295 296 296 295 294 293 292 291 290 289 288 288 288 287 286 285 284 283
316 314 313 313 314 311 309 307 306 302 303 301 300 300 299 298 297 296 296 295 295 295 294 294 294 294 294 294 295 295 293 292 291 290 289 288 288 287 287 286 285 284 283 283
316 314 313 311 310 309 307 306 300 300 299 300 300 298 297 296 295 295 294 294 293 294 294 294 293 293 293 293 294 293 292 291 290 289 288 288 287 287 286 285 284 282 281 280
316 313 312 309 307 306 304 301 300 299 300 299 297 296 296 295 295 295 294 293 293 293 293 293 293 293 292 293 293 291 290 289 289 288 288 287 286 286 285 284 284 282 281 280
314 309 309 307 305 303 300 300 299 299 297 296 296 295 295 294 294 293 294 293 293 293 293 293 292 292 292 290 290 290 288 287 288 287 286 286 285 285 284 284 283 282 282 281
307 306 304 304 303 301 300 300 298 296 296 295 295 294 293 293 293 293 293 293 293 293 293 292 292 292 290 290 289 288 287 287 287 286 286 285 285 284 283 283 283 282 282 281
306 305 305 303 300 300 298 296 296 295 295 294 293 293 293 293 293 293 293 292 292 293 293 293 292 291 290 288 288 287 287 286 285 285 285 285 284 284 283 283 282 282 282 281
302 301 300 298 297 296 296 295 295 294 293 293 293 293 293 292 292 292 291 291 290 290 290 291 291 290 288 288 287 286 286 285 284 284 284 284 284 283 283 283 282 282 282 281
302 298 297 296 296 295 295 295 294 293 293 293 293 291 290 290 291 290 289 289 289 290 290 290 289 288 288 287 286 286 285 285 284 283 284 284 283 283 283 282 282 281 281 280
297 296 296 295 295 294 295 294 293 293 292 291 290 290 290 290 289 289 289 289 289 289 289 289 288 288 287 285 285 285 284 284 284 284 284 283 283 283 282 282 282 281 281 280
295 295 294 294 294 294 294 293 293 292 291 290 290 290 290 290 289 289 289 289 289 289 289 288 288 287 285 284 283 284 284 283 283 283 283 283 283 283 282 282 282 281 280 279
293 293 293 293 292 292 292 291 292 291 291 291 290 290 290 290 289 289 289 289 289 289 288 288 287 286 284 284 283 283 283 283 283 283 283 283 283 283 283 282 281 281 280 280
292 292 292 291 291 292 292 292 291 291 291 291 290 290 290 289 289 289 289 289 289 288 288 287 286 285 285 284 283 283 283 283 283 283 283 283 283 283 283 282 282 281 281 280
293 292 292 291 291 291 292 291 291 291 291 291 290 290 289 289 289 289 289 289 288 288 288 286 285 285 284 283 283 284 283 283 283 283 283 283 283 283 283 282 282 282 281 280
292 292 292 292 292 292 291 291 291 291 291 290 289 289 289 289 289 288 289 289 288 288 288 286 286 285 284 283 283 283 283 283 283 283 283 283 283 283 283 282 282 281 281 280
293 293 292 292 292 292 291 292 292 292 291 290 289 289 288 289 290 289 288 288 288 288 287 286 286 285 284 283 283 283 283 283 282 283 282 282 282 283 283 282 282 281 281 280
292 291 292 293 292 292 292 292 292 292 291 289 288 288 289 289 288 288 288 288 288 288 287 287 286 285 284 284 283 283 283 282 282 282 282 282 282 282 282 282 282 281 281 281
293 293 293 293 292 292 292 292 291 290 289 289 288 288 288 288 288 288 288 288 288 287 287 287 287 286 285 284 284 283 283 282 281 281 282 282 282 282 282 282 282 282 281 281
293 293 293 293 293 292 291 290 289 289 288 288 288 288 288 287 288 288 288 288 289 289 288 288 287 286 284 284 283 283 282 282 281 281 281 282 282 282 282 282 282 281 281 281

GFSNGP_850_thetae_030.txt.gz
Theta_e
319 317 316 315 315 315 316 317 318 319 317 317 317 317 316 315 314 314 314 314 312 310 308 307 306 305 302 301 299 299 299 299 299 298 297 295 295 295 295 294 293 293 292 291
320 317 316 314 314 316 316 316 316 317 317 317 316 316 315 315 314 313 313 312 310 307 305 304 304 303 302 300 299 298 298 298 298 297 296 295 295 294 294 293 293 291 290 290
323 318 317 322 319 316 316 316 316 318 316 316 315 315 314 313 312 312 310 308 306 305 304 304 304 302 301 300 299 298 297 297 297 297 295 294 294 294 293 292 290 290 289 289
319 317 321 316 315 315 315 315 315 315 316 315 314 313 312 310 309 308 306 305 304 303 303 304 302 301 301 301 299 298 297 296 296 296 294 294 294 293 292 290 289 289 288 288
322 319 316 316 316 316 316 316 315 316 315 314 313 313 311 308 306 305 304 303 303 303 302 300 300 301 301 300 299 298 298 296 296 294 294 294 293 292 290 289 289 288 288 288
317 316 318 317 315 314 314 316 316 315 314 312 311 312 310 306 305 303 303 302 301 301 300 300 299 298 298 298 298 298 297 296 296 295 294 293 292 291 289 289 288 288 288 288
317 316 316 315 314 313 316 317 315 312 310 309 308 307 306 304 303 303 302 301 299 298 298 297 296 296 296 295 296 296 296 296 295 295 294 293 291 289 289 289 288 288 287 287
316 317 317 314 315 316 316 315 313 310 308 306 306 304 303 302 301 301 299 298 297 296 296 295 295 295 295 295 294 294 295 295 295 294 293 292 290 289 289 288 288 287 287 285
317 317 315 315 315 314 313 311 309 307 306 304 304 302 301 300 299 298 297 296 295 295 294 294 294 295 294 294 294 294 294 295 294 293 292 291 289 289 288 287 287 286 284 283
319 316 315 314 313 310 309 308 307 303 304 302 301 301 300 298 297 297 296 296 295 294 294 294 294 294 293 293 293 292 293 294 293 292 290 289 289 288 287 287 286 284 284 283
317 315 315 312 310 308 308 306 302 301 301 301 300 299 298 297 296 295 295 294 294 294 294 294 294 293 293 293 292 292 291 291 291 290 289 289 288 287 287 286 285 284 283 282
318 315 315 311 309 308 305 303 301 300 300 299 297 297 296 295 294 294 294 294 294 294 294 294 294 293 292 292 291 291 290 290 289 289 289 288 286 286 286 285 284 284 283 282
315 311 311 309 307 305 303 301 301 300 298 297 296 295 295 294 294 294 294 293 293 293 293 293 293 293 293 292 290 290 289 288 288 288 287 286 285 285 285 284 284 283 283 283
308 308 306 306 305 303 302 301 299 297 297 296 295 294 294 294 293 293 293 293 292 292 292 291 292 292 292 291 290 288 288 287 287 286 286 285 285 284 284 284 283 283 282 282
307 307 307 305 304 302 300 297 297 296 296 295 294 294 293 293 292 292 291 291 290 289 290 289 289 290 291 290 289 288 288 287 286 284 284 284 284 284 284 283 283 283 282 282
305 304 302 301 299 298 297 296 296 295 294 294 293 293 292 290 290 290 290 290 289 289 289 289 289 289 289 288 287 287 287 287 285 284 284 284 284 284 283 283 283 282 282 282
303 301 299 298 297 297 296 296 295 295 294 293 293 291 290 290 290 290 290 289 289 289 289 289 289 288 288 288 287 286 286 286 284 284 284 284 284 283 283 283 282 282 282 281
300 298 297 296 296 296 295 295 294 293 293 292 291 291 291 290 290 290 290 289 289 289 289 289 289 288 288 286 285 285 285 284 284 283 283 283 284 283 283 283 283 282 282 281
297 296 296 295 295 294 294 292 292 291 291 291 291 291 291 290 290 290 289 289 289 289 289 288 288 288 287 285 284 283 283 283 283 283 283 283 283 283 283 283 283 282 281 281
295 295 294 292 291 290 291 291 291 291 291 291 291 291 291 290 290 290 289 289 289 289 288 288 288 287 285 284 284 283 283 283 283 283 283 283 284 284 284 283 283 282 282 281
295 293 293 292 291 290 291 291 291 291 291 291 291 291 290 289 289 289 289 289 288 288 288 288 287 286 286 285 284 283 283 284 283 283 283 283 283 283 283 283 283 283 282 282
293 292 291 291 291 291 291 292 291 291 291 292 292 291 290 289 289 289 289 289 289 288 288 288 286 286 285 285 285 284 284 284 283 283 283 283 284 284 284 283 283 283 282 282
291 291 291 292 293 292 292 292 291 292 293 292 292 291 290 288 288 289 289 289 288 288 288 288 287 287 286 285 285 284 283 283 283 283 283 283 283 283 283 283 283 282 282 281
292 292 292 292 291 292 292 292 293 293 292 292 291 290 289 288 289 290 289 288 288 288 288 288 287 286 286 285 285 284 283 284 283 283 282 282 282 282 283 283 283 283 282 281
292 291 291 292 293 293 293 293 292 292 292 290 289 289 289 289 288 287 287 288 288 287 288 288 287 287 287 286 285 284 284 283 283 282 282 281 281 281 282 282 282 282 282 282
293 293 293 293 293 292 292 293 293 292 290 289 288 288 288 288 288 287 287 287 287 287 287 287 288 287 287 287 286 285 284 284 283 282 282 281 281 281 281 281 281 281 282 282
293 293 293 293 292 292 292 292 291 290 289 287 286 286 286 286 286 286 287 287 287 287 288 289 289 288 288 287 286 285 284 283 283 282 282 281 281 281 281 281 281 281 281 281

GFSNGP_850_thetae_033.txt.gz
Theta_e
318 315 315 314 313 312 312 313 313 313 316 316 315 314 314 314 313 313 312 310 309 307 307 305 304 304 304 302 302 301 299 298 298 298 298 298 297 295 294 293 293 293 292 290
315 317 315 313 313 314 314 315 316 315 315 313 314 313 312 312 311 310 309 307 306 305 304 303 303 303 303 302 301 300 300 299 298 297 298 298 297 293 293 293 293 292 290 289
314 314 312 312 315 314 314 314 314 315 314 313 312 311 310 310 309 307 305 305 305 303 302 302 301 301 302 301 301 301 300 299 298 297 296 296 294 293 293 292 291 290 289 289
307 308 306 315 313 314 315 314 314 314 314 312 312 310 310 309 307 305 304 303 301 301 301 301 301 300 299 298 297 297 297 297 298 297 296 295 294 294 293 292 290 289 288 288
311 311 312 314 315 315 314 315 314 314 312 311 310 310 308 307 303 302 302 302 302 301 299 298 297 296 296 295 295 295 295 295 295 295 295 294 294 293 292 290 289 289 288 288
302 304 306 312 313 313 313 310 313 312 310 309 308 305 305 304 302 301 301 301 298 297 296 295 295 295 294 294 294 294 294 295 295 294 294 294 293 292 290 289 289 289 288 288
303 303 308 312 313 313 310 310 311 311 309 307 306 306 305 302 301 301 299 298 297 296 295 294 294 294 294 294 294 294 293 293 293 293 294 294 291 290 289 289 288 288 288 287
310 309 308 313 314 310 311 313 311 309 308 306 305 303 302 301 300 298 297 296 296 295 295 294 294 294 294 294 293 293 293 293 291 293 293 292 292 290 289 288 288 287 287 285
309 308 310 314 314 314 314 311 310 307 306 304 303 301 301 299 297 297 296 295 295 294 294 294 294 294 294 293 293 293 292 291 290 292 291 291 290 289 288 288 287 287 285 284
312 314 314 314 313 312 311 310 309 307 303 301 301 300 298 297 296 295 294 294 294 293 294 294 294 293 294 293 293 293 292 291 290 290 290 289 289 289 288 286 286 285 284 284
311 312 312 311 311 310 309 307 304 301 300 300 298 297 296 295 295 294 294 293 293 293 293 293 292 292 293 293 293 292 292 290 289 289 289 289 288 287 286 286 285 284 284 283
307 314 313 311 309 309 306 303 301 301 300 299 297 296 295 295 294 293 293 292 291 291 292 291 291 292 292 293 292 292 291 289 288 288 288 287 286 285 285 285 284 283 283 283
314 313 313 310 309 306 304 302 301 300 298 296 296 295 294 294 293 292 290 290 290 291 291 289 289 289 290 290 290 290 289 288 287 287 287 286 285 285 284 283 283 283 283 282
312 310 307 307 306 304 302 301 298 297 296 296 295 294 294 293 291 290 290 290 290 290 289 289 289 289 288 288 289 288 288 287 287 286 284 284 284 284 283 283 283 283 282 282
309 308 307 305 303 302 301 297 297 296 295 295 294 293 292 290 290 290 290 290 290 289 289 289 289 289 289 288 287 287 286 286 285 285 284 283 284 284 283 283 283 282 282 282
307 306 303 303 300 298 297 296 296 296 295 294 292 291 291 290 290 290 290 290 289 289 289 289 289 289 289 288 287 287 286 286 285 284 283 283 283 283 283 283 282 282 282 282
304 302 299 298 297 297 296 296 295 295 294 291 291 291 291 290 290 290 290 290 289 289 289 289 289 288 288 286 286 286 285 285 285 283 283 283 283 283 283 283 282 283 282 282
301 298 297 296 296 295 295 295 294 292 291 291 291 291 290 291 291 290 290 290 289 289 289 288 288 288 288 287 286 285 284 283 283 283 283 283 283 283 283 283 283 283 282 282
297 296 295 295 295 293 292 290 290 291 291 291 291 290 291 291 291 289 289 289 288 289 288 288 288 288 287 286 285 283 283 283 283 283 283 283 283 283 283 284 284 283 282 282
296 295 295 292 292 291 290 290 290 290 291 291 291 291 291 291 289 289 288 288 289 289 288 288 288 288 287 286 285 284 284 283 283 283 283 283 283 283 283 283 283 283 283 282
296 295 293 292 291 290 290 291 291 291 291 291 291 292 292 291 290 289 288 288 289 289 288 287 288 287 286 285 285 285 285 284 284 283 283 283 283 283 283 283 283 283 282 282
293 292 291 290 291 290 291 290 291 291 291 292 292 292 291 291 290 289 288 288 289 289 288 287 287 287 286 286 286 285 285 284 283 283 283 283 283 283 283 283 283 283 283 282
292 291 291 291 291 291 291 291 292 292 292 292 292 292 290 289 289 288 288 288 288 288 287 287 287 287 287 286 286 286 285 284 283 283 283 283 282 282 282 282 282 282 282 282
293 291 291 291 291 291 292 291 292 292 292 292 292 291 289 288 288 289 289 288 287 287 287 288 287 287 287 287 286 286 286 285 284 283 283 283 282 282 282 281 282 282 282 282
291 291 291 292 292 292 292 292 292 293 292 292 291 290 288 287 287 287 287 287 286 286 287 287 287 287 287 287 287 287 286 286 285 284 283 283 282 281 281 281 281 281 281 282
292 292 292 292 293 293 293 292 292 292 291 290 290 288 286 286 286 286 286 286 286 286 287 287 287 287 287 287 287 288 287 286 286 284 283 283 282 282 281 281 281 280 280 280
292 293 293 293 292 292 292 292 291 290 289 289 288 286 286 286 286 286 286 285 286 286 286 286 286 287 287 287 287 287 288 287 286 285 283 283 282 282 281 281 281 281 281 281

GFSNGP_850_thetae_036.txt.gz
Theta_e
316 314 314 313 313 311 311 310 310 312 314 314 313 312 312 312 311 310 309 308 306 305 303 303 301 300 300 301 302 302 301 300 300 299 298 298 297 297 296 295 293 293 293 291
313 314 313 312 311 313 313 314 313 313 314 313 312 312 311 310 309 308 306 304 303 302 301 301 301 302 302 301 300 299 298 298 299 297 298 297 296 296 296 294 293 292 291 290
307 310 309 309 313 313 313 313 313 313 312 311 310 310 309 308 306 304 303 302 301 301 301 300 300 299 297 296 295 295 295 295 295 294 294 295 295 295 294 294 291 290 290 289
304 303 301 311 312 312 314 314 313 313 311 310 310 309 307 306 303 302 301 301 301 300 298 297 296 295 295 294 294 294 294 294 294 294 293 293 293 293 293 292 291 290 289 288
302 308 307 312 314 313 312 313 313 312 311 310 309 308 307 304 301 301 301 300 297 297 295 295 294 294 294 293 293 294 294 294 293 293 292 291 293 294 292 291 289 289 288 288
306 301 302 307 313 313 312 310 313 312 310 309 307 303 303 302 301 300 298 297 296 295 295 295 295 294 294 293 294 294 293 293 293 292 291 292 293 292 290 289 289 288 288 287
298 299 305 307 312 312 310 309 312 312 310 308 305 306 303 301 300 298 297 296 296 295 295 294 294 293 293 293 293 293 293 293 292 291 291 292 292 289 289 289 288 288 287 286
302 300 308 310 312 311 309 313 313 311 309 307 306 303 301 301 298 297 297 296 295 294 294 293 292 293 293 293 293 293 293 293 292 291 290 290 291 290 290 288 287 287 286 285
309 308 308 312 312 313 313 313 310 310 308 306 303 301 301 298 297 296 295 295 294 293 292 291 291 291 291 291 292 293 292 292 292 291 290 290 289 289 288 287 287 286 285 284
309 311 312 313 313 313 313 312 310 308 306 301 301 300 297 296 296 295 295 294 293 291 290 290 290 290 290 290 292 292 292 292 291 290 289 289 288 288 287 286 286 285 284 284
309 311 311 311 312 312 310 310 308 303 301 300 298 297 296 296 295 294 293 293 291 290 290 290 290 289 290 289 290 291 291 290 289 288 288 288 287 286 285 285 285 284 283 283
309 312 311 311 311 310 309 306 301 301 300 297 297 296 296 295 294 293 292 290 290 290 290 290 289 289 289 289 288 288 289 288 287 287 287 286 286 285 285 284 284 283 283 283
313 314 314 312 310 309 304 301 301 300 299 297 296 295 295 294 293 292 290 290 290 290 289 289 289 289 289 288 288 287 287 288 286 286 285 284 284 283 283 283 283 283 282 282
313 313 309 309 308 305 302 301 299 297 296 296 295 295 294 293 291 290 290 290 290 290 290 289 289 289 289 288 287 287 287 286 286 285 284 283 283 283 283 283 283 282 282 282
310 309 309 308 305 303 302 298 296 296 296 295 295 294 291 290 290 290 290 290 290 290 290 289 289 289 288 288 287 286 286 286 286 286 284 283 283 283 283 283 282 282 282 282
307 306 305 302 302 301 297 296 296 296 295 295 294 291 290 290 290 290 290 290 290 289 289 289 288 289 288 287 286 286 285 285 285 284 283 282 282 283 283 283 282 282 282 282
305 303 299 297 297 296 297 296 296 295 294 292 290 290 290 290 290 290 290 290 288 288 288 288 288 288 288 287 286 285 284 284 284 283 282 282 282 282 283 283 282 283 283 282
302 299 299 298 298 296 296 295 293 291 290 290 290 291 290 290 290 291 290 289 288 288 289 288 288 288 288 287 286 285 284 283 283 283 282 282 282 282 282 283 283 283 283 282
298 297 295 296 295 293 291 290 290 290 290 290 291 291 290 291 292 290 289 289 288 287 288 288 288 288 288 287 286 286 284 284 284 282 282 282 282 282 283 283 283 283 283 283
296 295 295 293 292 291 290 290 290 290 290 291 291 291 291 292 291 290 289 288 288 288 288 289 288 287 287 287 286 285 285 284 284 284 283 282 282 282 282 283 283 283 283 282
296 296 293 292 291 290 290 290 290 290 291 291 291 292 292 292 290 289 289 288 288 288 289 288 288 288 287 286 286 285 285 285 284 284 284 283 283 282 282 282 283 283 283 283
293 292 291 291 290 290 290 291 291 291 291 292 292 292 292 292 291 289 288 288 288 288 287 287 287 287 287 287 287 286 286 285 285 285 284 283 283 283 282 282 282 282 282 282
292 292 291 291 291 291 291 291 291 292 292 292 292 292 292 291 290 289 288 288 287 287 287 286 286 286 287 287 287 287 287 286 286 286 285 284 283 283 282 282 282 281 281 282
291 291 291 291 291 292 292 291 292 292 292 292 291 292 291 290 289 288 286 286 286 286 286 286 286 286 286 287 287 287 287 287 286 286 286 285 283 283 282 282 281 281 281 281
291 291 292 292 292 292 292 292 293 292 292 292 291 290 289 288 287 286 286 285 286 285 285 286 286 286 286 286 287 287 287 287 287 287 286 286 284 283 283 282 282 281 281 281
292 292 292 293 293 292 292 293 292 292 292 291 290 289 288 287 286 285 286 286 285 284 284 285 285 285 286 286 286 286 287 287 287 287 287 286 285 284 283 282 282 281 281 280
291 291 292 292 292 292 292 292 292 291 290 289 288 287 286 286 286 286 285 284 283 284 284 284 284 284 284 284 285 286 286 285 286 286 287 286 285 284 283 282 282 281 281 280

GFSNGP_850_thetae_039.txt.gz
Theta_e
313 312 313 313 311 310 310 309 309 309 311 312 311 310 312 312 310 309 307 305 303 302 301 301 301 301 301 300 299 298 296 295 295 294 295 296 294 294 295 294 295 294 293 292
313 312 311 312 310 309 310 310 309 313 314 311 312 311 311 309 308 307 304 302 301 301 301 300 299 298 297 296 295 295 294 293 294 294 293 293 293 293 293 293 294 294 293 290
305 308 306 304 308 311 312 312 311 313 311 310 310 310 309 308 307 304 302 301 301 301 299 296 296 295 295 294 294 294 293 294 293 293 293 292 292 291 292 293 293 292 291 290
302 302 304 307 308 310 311 313 312 311 310 310 310 310 309 308 304 301 301 301 300 297 296 295 295 294 294 294 293 293 293 293 293 293 293 292 290 291 293 293 291 290 288 288
303 305 305 310 312 313 312 312 311 310 309 310 309 308 307 306 302 301 301 298 296 296 295 295 295 294 293 293 293 293 293 293 293 292 292 291 290 292 292 291 290 289 288 288
304 300 301 306 312 312 310 309 312 311 309 309 307 304 303 306 301 301 298 297 296 296 295 294 293 293 292 291 292 291 292 292 293 292 292 291 290 291 291 290 289 289 288 287
295 298 304 305 311 311 310 306 312 313 311 309 304 307 306 302 301 298 297 296 295 295 294 293 292 291 290 290 290 290 292 292 292 292 292 291 290 290 290 289 289 287 287 286
302 300 308 308 310 310 309 310 313 312 311 309 308 306 302 301 298 296 296 296 295 294 293 291 290 290 290 290 290 290 291 292 292 291 291 291 289 289 289 288 287 287 286 285
307 308 307 311 310 312 311 312 312 312 311 309 306 302 301 299 297 296 296 295 294 293 291 290 290 290 289 289 289 289 290 291 291 291 290 289 289 289 288 287 286 286 285 284
308 309 308 310 312 312 312 313 313 311 309 307 303 301 299 297 296 295 295 294 293 291 290 290 290 289 289 289 289 289 288 289 289 289 287 287 288 287 286 286 285 284 284 283
308 309 311 312 312 312 313 312 311 309 307 304 301 299 297 296 295 294 294 293 291 290 290 290 289 289 289 289 289 288 287 287 288 287 287 287 286 286 285 284 284 283 283 283
308 311 312 312 313 312 311 310 308 304 301 300 298 297 296 295 294 294 293 290 290 290 290 290 289 289 289 289 288 287 287 287 287 286 286 286 284 283 283 283 283 283 283 282
312 314 312 312 312 310 310 307 302 301 300 298 296 296 295 294 293 292 290 290 290 290 290 290 290 289 289 289 287 287 286 287 287 286 285 284 283 282 282 282 283 283 282 282
312 312 310 310 309 309 306 301 301 299 297 296 295 295 294 293 291 290 290 290 290 290 290 290 289 289 288 288 288 287 286 286 286 285 284 284 282 282 282 282 283 282 282 282
311 311 310 310 308 304 302 301 298 297 296 295 295 294 292 290 290 290 290 290 290 290 290 289 289 288 287 288 287 286 286 285 285 285 285 284 283 282 282 282 282 282 282 282
308 308 307 306 304 301 297 297 297 296 295 295 293 291 290 290 290 290 290 290 290 290 289 288 288 287 288 287 286 286 285 284 284 283 283 283 282 282 282 282 282 282 282 282
306 302 301 299 298 299 297 297 296 295 293 291 290 290 289 290 290 290 290 290 289 288 289 288 287 288 287 287 287 286 285 285 283 282 283 282 282 282 282 282 282 282 282 283
302 299 299 300 299 297 296 294 292 291 290 290 290 290 290 290 290 291 290 289 289 288 288 288 287 287 287 287 287 286 285 285 284 284 283 282 282 282 282 282 282 282 283 283
300 299 297 295 293 292 291 291 290 290 290 290 290 290 290 290 291 291 290 290 289 288 288 288 287 287 287 287 286 286 285 285 284 284 283 283 282 282 282 282 282 282 282 282
294 294 294 293 292 291 290 290 290 290 290 290 291 291 291 291 291 291 291 290 290 288 288 288 288 287 287 287 287 286 285 285 284 284 284 283 283 283 282 282 282 282 282 282
294 293 292 292 291 290 290 290 290 290 290 291 291 291 291 291 292 292 291 290 289 288 287 288 288 287 286 286 286 287 288 287 286 285 285 285 284 284 283 283 282 282 282 282
293 292 291 291 290 290 290 290 290 290 291 291 291 291 292 291 291 291 290 289 288 287 286 286 286 286 286 286 286 287 287 287 287 286 286 285 285 285 284 283 283 282 282 281
291 291 291 290 290 290 290 290 291 291 292 292 292 291 291 291 290 289 288 287 286 286 285 286 286 285 285 286 286 286 286 287 287 286 286 286 286 286 285 284 283 283 282 281
291 291 291 291 292 292 292 292 292 292 292 292 292 291 291 291 290 288 287 286 285 285 285 285 285 285 285 285 285 286 286 286 287 287 287 287 287 286 286 285 283 282 282 281
291 292 292 292 292 292 292 292 292 292 292 292 291 291 291 290 289 287 286 285 285 285 285 284 284 284 284 283 283 284 285 285 286 286 286 286 286 286 286 286 284 283 282 281
291 290 290 290 291 291 291 291 291 291 292 292 291 291 290 289 287 286 285 285 285 285 284 284 283 283 283 283 283 283 283 283 284 285 285 285 285 286 286 285 284 283 282 281
290 290 288 288 288 287 287 287 286 286 287 290 290 289 289 289 287 286 286 285 285 284 284 283 282 282 282 282 283 283 283 283 283 284 285 285 285 285 285 284 283 282 282 281

GFSNGP_850_thetae_042.txt.gz
Theta_e
312 311 311 311 310 309 310 309 310 309 310 309 310 309 310 311 309 309 308 306 303 302 301 301 300 300 298 297 295 295 294 293 293 293 293 293 292 292 291 291 293 293 294 293
314 310 309 311 310 308 307 308 308 310 310 310 311 311 311 310 309 308 306 303 301 301 301 299 297 296 295 295 295 294 293 292 293 293 293 292 292 292 290 291 293 293 292 291
309 306 304 304 307 308 310 308 308 311 310 309 309 310 310 309 309 307 303 301 301 301 298 296 295 295 294 294 293 292 292 292 292 292 292 292 292 291 290 291 292 291 290 289
301 301 302 306 306 308 309 310 309 310 309 310 310 310 310 309 308 304 302 301 301 298 296 295 295 294 294 293 291 291 291 291 292 292 292 292 292 291 290 290 289 289 289 288
301 303 304 308 311 310 310 309 310 310 308 309 309 309 309 309 307 302 301 301 298 296 295 295 294 293 292 291 290 290 289 290 291 292 292 292 291 291 290 291 290 289 289 288
299 300 300 305 310 311 310 310 310 311 308 308 308 305 306 310 308 302 301 298 296 295 295 294 293 291 290 290 290 289 290 290 290 292 292 291 291 290 290 290 290 289 288 287
294 297 303 303 310 310 310 308 310 312 311 308 306 308 309 309 305 301 298 296 296 295 294 293 291 290 290 290 289 289 290 290 290 291 290 291 290 289 288 289 289 288 287 286
300 297 308 306 310 310 309 309 311 312 312 311 308 308 306 303 301 299 296 296 295 294 293 291 290 290 290 289 289 289 289 289 289 290 290 289 289 288 289 289 288 287 286 285
305 307 307 308 309 311 310 311 311 312 312 312 310 307 303 302 300 296 296 295 294 293 292 290 290 289 289 289 289 289 289 289 288 288 288 288 287 287 288 287 287 285 285 284
307 308 307 309 310 310 311 311 312 312 312 311 309 305 302 299 296 295 295 294 294 292 290 290 289 289 289 289 289 289 289 288 287 287 287 287 287 287 287 286 285 284 284 283
306 308 310 312 312 311 311 312 313 312 311 309 306 302 301 297 295 295 294 293 292 290 289 289 289 289 289 289 289 289 288 286 286 287 286 286 286 285 284 284 284 283 283 283
307 309 310 311 312 313 312 311 310 310 307 303 303 299 297 296 295 294 292 291 290 289 289 290 290 290 289 289 288 288 287 286 286 286 286 285 285 284 282 282 282 282 282 282
310 312 312 312 312 312 310 309 308 306 302 302 297 298 295 295 294 292 290 290 290 289 290 290 290 289 289 288 287 287 288 286 286 286 286 285 284 283 282 282 282 282 282 282
311 311 311 311 310 309 308 306 302 301 297 298 297 295 295 294 292 290 290 290 289 290 290 290 290 289 288 286 287 287 286 285 285 285 285 284 285 283 282 282 282 282 282 281
309 309 309 309 308 305 303 301 298 298 298 297 295 294 293 291 290 290 290 289 290 290 290 289 289 289 287 287 287 286 286 285 285 284 284 284 283 282 282 282 282 282 282 282
308 307 307 306 301 298 298 297 298 298 296 295 294 292 290 290 290 290 290 290 290 290 289 289 288 288 286 287 287 286 286 285 284 283 283 282 282 282 282 282 281 282 281 281
306 300 300 296 296 298 299 297 296 295 294 292 290 290 290 290 290 290 290 290 290 290 290 288 288 288 287 287 287 286 285 286 285 284 284 283 282 282 282 281 282 282 281 282
302 299 300 300 299 297 296 295 293 291 290 290 290 289 290 290 290 290 291 291 291 290 290 289 288 288 287 287 287 287 286 286 285 285 284 284 283 282 282 281 281 281 282 282
299 297 295 294 293 292 291 291 290 290 290 290 290 290 290 290 290 291 291 291 291 291 290 289 288 288 287 287 287 286 287 287 285 284 284 284 283 283 283 282 282 282 281 281
294 294 294 293 292 291 290 290 290 290 290 290 290 290 290 290 291 291 291 291 290 290 289 288 287 287 287 287 286 286 286 286 286 286 285 285 285 285 284 284 283 283 282 282
293 292 291 291 290 290 290 290 290 290 290 290 290 291 291 291 291 291 291 290 289 288 287 287 286 286 286 285 285 285 286 286 286 286 286 286 286 286 285 285 285 284 283 282
292 291 291 290 290 290 290 290 291 291 291 291 291 291 291 291 291 291 291 290 289 288 286 286 285 285 285 284 284 284 285 285 286 286 286 286 286 286 286 286 286 285 284 283
291 291 291 291 291 291 291 291 291 291 291 291 292 292 292 292 292 291 291 290 288 287 286 285 285 285 284 284 283 284 285 284 285 285 285 286 286 286 286 286 286 286 285 284
291 291 291 291 291 290 290 290 290 291 291 291 292 292 292 292 291 291 290 289 287 286 286 285 285 284 284 283 283 283 283 282 283 283 284 284 285 285 285 285 286 286 285 285
291 291 290 290 289 289 288 288 287 286 286 286 286 287 288 291 291 291 289 288 287 286 285 285 285 284 283 283 283 283 283 283 283 283 282 283 283 284 285 285 285 285 285 284
290 290 289 287 286 285 284 284 284 284 284 284 285 285 285 287 288 288 288 287 287 286 285 285 284 283 282 282 282 281 282 282 282 282 283 283 283 284 284 285 284 284 284 283
289 287 286 285 284 283 282 282 282 282 282 282 282 283 285 285 286 286 287 287 286 285 284 284 283 281 281 281 280 280 280 280 281 281 281 282 283 283 283 284 283 283 283 282

GFSNGP_850_thetae_048.txt.gz
Theta_e
317 316 316 318 318 318 318 317 318 316 315 314 316 318 318 318 316 314 313 311 310 308 306 304 302 301 301 297 296 296 295 294 294 295 295 295 294 294 294 294 293 293 292 291
319 316 315 316 316 316 318 318 317 317 316 316 314 314 317 316 315 313 312 310 308 306 304 303 300 299 297 296 296 294 292 293 294 294 294 294 294 294 294 293 293 293 292 292
319 313 314 319 318 317 316 317 317 317 317 315 315 315 316 316 314 313 311 309 307 304 302 300 298 297 296 296 294 292 292 292 292 292 293 293 293 293 293 293 293 292 292 292
319 311 324 315 312 313 317 317 316 315 315 315 316 315 315 315 314 313 311 308 305 303 300 298 297 296 296 294 292 291 290 290 290 291 291 292 293 293 293 292 292 291 291 291
326 315 314 313 311 311 313 313 315 315 314 315 314 314 314 314 313 312 310 307 304 302 299 296 296 296 294 293 291 291 290 291 290 290 292 293 293 292 292 291 291 291 290 289
315 329 329 313 312 313 313 315 314 314 315 314 314 318 314 313 312 310 307 304 301 298 296 296 296 295 292 292 291 291 291 289 290 291 292 292 292 291 291 290 290 290 289 289
318 327 317 313 312 313 315 314 314 314 315 314 316 315 313 313 309 306 304 300 297 296 295 296 295 293 291 292 291 291 289 290 290 291 290 289 289 289 290 289 288 288 288 288
316 323 323 310 313 317 316 313 313 315 315 314 313 310 310 309 306 302 298 297 295 297 296 296 293 291 291 292 291 290 290 290 290 290 290 289 289 290 289 289 287 287 287 287
318 318 313 311 315 314 312 313 313 313 313 312 310 309 307 305 302 297 296 296 297 297 296 293 291 290 290 291 290 290 289 290 290 290 289 289 288 288 287 287 287 286 286 286
315 314 313 312 311 311 311 312 312 311 312 312 311 308 303 297 296 297 297 296 296 295 293 291 290 289 289 290 289 289 290 289 288 288 288 288 288 288 287 287 286 286 285 285
315 314 313 312 312 312 312 310 310 310 310 310 309 303 297 297 298 296 295 297 296 293 291 290 289 289 289 289 289 289 289 288 287 287 287 287 287 287 287 286 285 285 284 284
317 311 312 312 310 311 311 310 309 307 305 304 300 298 300 297 296 298 298 296 293 291 290 290 289 289 289 289 289 289 289 288 287 287 287 287 287 286 286 285 284 284 283 282
312 311 311 310 309 309 309 307 304 302 300 298 298 298 298 298 297 296 296 293 290 290 289 289 290 289 289 289 289 289 288 287 287 286 286 286 286 286 286 285 285 284 283 282
309 310 310 307 305 304 302 299 299 298 298 300 300 298 297 296 296 293 292 290 290 289 289 290 290 290 290 290 289 288 288 287 287 286 286 286 286 285 285 285 284 284 284 283
306 306 305 301 299 298 298 298 298 300 298 297 296 296 295 294 292 291 290 290 289 289 289 290 290 290 290 289 288 288 288 287 287 286 286 285 285 285 284 284 284 284 284 284
302 301 300 299 299 299 298 300 298 297 296 296 295 294 293 290 290 290 289 289 290 289 291 291 290 290 290 289 288 288 288 287 286 286 286 286 285 285 285 285 285 284 284 284
300 299 299 299 299 298 297 297 298 297 295 294 293 290 290 289 289 290 290 290 290 290 290 290 290 290 290 289 288 288 288 287 287 286 286 286 286 286 285 285 285 284 284 284
301 299 299 298 297 297 295 294 292 290 290 290 290 290 290 290 290 290 290 290 290 290 290 291 291 291 290 289 287 287 286 286 286 286 286 286 286 285 285 285 285 285 284 284
298 298 297 295 293 291 290 290 290 290 290 290 290 290 290 290 290 290 291 291 291 291 290 291 291 291 290 289 287 286 286 286 285 285 285 285 285 285 285 285 286 285 285 285
295 293 292 291 290 290 290 290 290 290 290 290 290 291 291 291 291 291 291 291 291 291 291 292 291 291 291 289 287 285 285 285 284 284 285 285 285 285 285 285 285 285 285 285
292 291 291 291 290 290 290 291 291 291 290 290 288 287 286 286 285 285 286 287 287 289 290 291 291 291 290 289 287 285 285 284 284 284 284 285 285 285 285 285 285 285 285 285
291 291 291 291 291 291 291 290 289 287 286 286 285 284 284 284 284 284 284 285 286 286 287 288 288 288 288 286 285 285 285 283 283 283 283 284 284 284 284 284 284 284 284 285
291 291 291 291 290 289 288 287 286 285 284 283 283 282 281 281 282 283 283 283 284 285 285 285 286 286 286 285 284 284 284 283 282 281 281 281 281 282 282 283 283 283 283 284
291 291 290 289 288 287 286 285 284 283 281 281 280 280 279 280 280 281 281 282 283 284 284 284 284 285 285 284 283 284 282 281 281 280 280 280 281 281 281 281 282 282 282 283
290 289 288 286 285 284 283 282 281 280 280 279 279 278 277 277 277 277 279 280 281 282 283 283 283 282 282 282 282 282 281 280 280 279 279 279 279 279 279 280 280 280 281 282
288 286 284 283 282 281 280 280 279 279 278 277 277 276 275 275 276 276 277 278 279 280 280 280 280 280 280 279 279 279 279 278 278 278 278 278 278 278 278 278 278 279 279 279
285 283 282 281 280 279 279 278 278 277 277 276 276 276 275 275 275 276 275 276 277 277 277 277 277 277 277 277 277 277 277 277 277 276 276 276 276 276 276 276 277 277 278 278

GFSNGP_850_thetae_051.txt.gz
Theta_e
321 321 320 321 321 321 321 320 321 319 318 317 317 318 318 318 319 320 319 318 316 315 313 311 308 305 305 303 301 299 298 297 296 296 296 296 296 296 296 295 295 295 295 294
322 321 320 320 320 319 319 319 318 318 318 318 317 316 316 318 319 319 318 317 316 314 312 310 307 304 303 301 299 298 297 296 295 295 294 295 295 295 295 295 295 295 294 293
321 318 318 321 320 319 319 319 319 320 319 319 318 316 315 317 318 318 317 316 315 313 310 308 304 303 300 299 298 296 295 294 294 293 293 294 294 294 295 295 294 294 293 292
321 315 323 317 316 316 317 318 318 318 318 317 316 316 316 317 317 317 316 315 313 311 308 304 302 299 299 297 296 295 294 293 293 293 293 293 294 294 295 294 294 292 292 292
325 318 317 316 314 314 315 315 315 316 315 315 317 317 317 316 317 316 316 314 311 308 305 302 299 299 297 296 295 294 293 293 293 293 293 294 294 294 294 293 293 291 291 291
320 327 327 317 315 315 315 315 314 315 316 316 316 319 318 316 315 315 314 312 309 306 302 299 298 297 296 295 294 293 293 293 293 293 293 293 293 292 292 292 292 291 290 290
322 326 322 317 315 315 316 318 315 315 315 315 317 317 316 315 314 314 311 308 305 300 298 298 297 297 295 294 293 293 293 292 293 293 293 292 292 291 291 291 291 289 288 289
325 321 323 314 315 317 318 315 315 315 316 316 316 314 314 314 312 310 307 300 298 297 298 297 296 295 293 293 293 293 292 292 292 292 292 292 291 291 291 291 289 288 288 287
321 321 316 314 315 316 315 315 315 315 315 315 316 313 312 311 308 304 298 297 298 298 297 296 295 292 292 292 292 292 292 292 292 291 290 291 291 291 290 289 288 287 287 288
318 316 315 314 314 314 314 314 314 314 314 314 314 313 310 308 300 298 297 297 298 297 296 294 293 292 292 292 292 292 292 292 291 290 289 288 289 290 289 288 288 287 287 287
317 315 314 314 314 314 314 314 313 313 313 314 314 311 305 300 298 297 297 298 297 295 294 293 292 292 292 291 291 291 291 291 291 290 288 288 288 288 288 288 288 287 287 286
318 315 315 315 313 313 314 314 312 310 309 309 307 301 299 297 298 297 297 296 295 294 292 291 292 292 291 291 291 291 291 291 291 290 288 288 287 287 287 286 286 286 285 284
315 314 314 313 312 312 311 308 307 305 303 301 299 298 298 298 298 295 296 296 294 293 292 292 292 292 292 292 291 291 291 290 290 289 288 288 287 287 287 287 286 286 285 285
312 313 312 311 309 306 303 302 301 300 298 299 299 297 297 298 297 296 295 294 293 292 292 292 292 292 292 292 292 291 291 290 289 289 288 287 287 287 287 286 286 286 285 285
309 309 308 304 303 303 301 300 300 298 297 297 297 297 296 296 295 294 293 293 292 292 292 292 292 292 292 291 291 291 291 290 289 288 288 287 287 287 286 286 286 285 285 285
306 305 303 303 301 301 300 299 298 297 298 297 296 295 294 293 293 292 292 292 292 292 291 291 291 290 291 292 292 291 291 290 289 289 288 287 287 287 287 287 286 286 286 286
304 302 301 301 301 300 299 299 299 297 296 294 292 290 290 290 290 291 291 291 290 290 290 290 290 290 290 291 291 291 291 290 288 287 288 288 288 287 287 287 287 286 286 286
302 301 300 299 299 298 296 294 292 292 290 290 290 290 290 290 290 290 290 290 289 290 290 290 291 291 291 291 292 291 290 290 288 286 286 286 286 286 285 286 286 286 286 286
299 299 298 297 295 294 293 291 290 290 290 290 290 290 289 289 289 288 287 287 286 287 289 291 291 291 291 291 291 290 289 288 287 286 285 285 286 286 286 286 286 286 286 286
296 295 293 292 291 290 290 290 291 291 290 290 289 288 287 286 285 285 284 284 287 288 287 287 287 287 288 289 290 289 287 287 286 286 285 285 285 285 286 286 286 286 286 286
294 292 290 290 290 290 291 291 290 289 288 287 286 285 284 283 283 283 285 285 286 285 285 284 285 286 286 286 287 288 287 286 286 285 285 285 285 285 285 285 285 285 285 285
291 291 291 291 291 291 290 289 288 287 286 285 283 282 281 281 282 283 283 284 284 282 282 282 283 284 285 285 285 286 286 285 284 283 282 282 282 282 282 282 283 284 284 284
292 291 291 291 290 289 288 287 286 285 283 282 281 281 280 280 281 281 281 281 280 280 280 281 282 282 283 284 284 284 283 283 282 281 280 279 279 279 280 279 280 280 281 281
291 291 290 289 288 287 285 284 283 282 281 280 280 279 279 279 279 279 279 278 278 279 279 279 279 280 280 281 281 281 280 280 279 279 279 279 279 279 278 278 278 278 279 279
290 289 288 286 285 284 282 281 281 281 280 279 279 278 278 277 277 277 277 277 277 276 276 277 277 277 277 278 278 277 276 276 277 277 278 277 277 277 277 277 277 278 278 278
287 286 285 284 282 281 280 280 279 279 278 278 277 277 276 276 275 275 275 275 274 275 275 275 276 276 276 276 276 276 275 275 276 276 276 276 275 274 274 275 275 275 276 277
286 284 282 282 280 280 279 279 278 277 277 276 275 276 275 275 274 274 273 273 274 274 273 273 274 275 274 274 274 274 274 274 274 274 274 273 273 273 273 273 273 273 273 273

GFSNGP_850_thetae_054.txt.gz
Theta_e
319 320 321 322 322 321 321 321 323 323 319 319 319 320 319 318 319 321 322 323 322 320 318 316 314 311 309 306 304 302 300 299 298 297 297 297 296 296 296 296 296 295 295 295
324 322 322 321 320 320 320 320 319 320 319 319 319 318 317 317 318 318 321 321 320 318 317 315 312 310 306 304 302 300 299 297 296 295 295 294 294 294 294 295 295 295 295 295
327 320 318 320 320 319 319 319 320 320 321 320 318 318 317 316 316 318 319 319 318 317 316 313 311 308 305 302 300 298 297 295 295 294 293 294 294 294 294 294 295 295 295 294
329 317 322 318 318 316 317 317 317 317 318 317 318 317 317 317 317 318 318 318 317 316 314 311 308 304 301 300 298 296 295 294 294 294 293 293 293 294 294 295 295 294 294 293
323 322 318 318 317 316 316 316 317 316 316 317 317 316 316 316 317 317 317 317 316 313 311 307 304 300 299 298 297 295 295 295 293 293 293 293 294 294 294 293 293 293 292 292
325 326 323 319 316 315 315 318 315 315 316 316 316 319 319 317 316 315 316 315 313 310 307 304 300 299 298 297 296 295 294 294 292 292 293 293 293 293 292 292 291 292 292 291
323 325 324 320 317 315 318 321 316 315 314 315 317 318 317 316 315 315 314 312 310 306 301 299 298 297 296 295 294 294 294 293 292 293 293 293 292 292 292 292 292 291 291 289
327 322 323 316 315 317 319 316 316 315 316 317 317 315 315 315 314 312 308 304 301 299 299 298 297 296 295 294 294 293 293 292 292 293 292 292 292 292 292 292 291 291 289 288
324 324 318 314 316 317 315 315 315 316 316 315 316 315 314 313 309 303 300 299 299 299 298 297 295 294 294 293 291 292 291 292 292 292 292 291 290 289 291 291 290 288 288 287
321 317 317 315 315 315 315 315 315 315 315 315 314 315 312 307 301 299 299 299 298 298 298 295 295 294 293 292 292 292 292 292 292 292 291 291 290 288 288 289 289 289 289 288
318 317 316 316 316 315 316 315 315 314 314 314 315 312 306 301 300 299 298 298 298 296 296 295 294 293 292 292 292 292 292 292 291 291 291 291 289 288 287 287 288 288 288 288
323 317 317 316 314 314 314 313 312 310 307 306 305 302 300 298 298 298 299 298 296 296 295 293 293 293 292 292 292 292 292 291 290 290 290 289 288 288 287 287 287 286 286 286
317 315 315 313 312 312 309 307 305 304 302 301 300 300 300 298 297 296 297 297 296 295 293 293 293 292 292 292 292 292 292 292 291 290 290 289 289 288 287 287 287 287 287 286
314 314 313 313 307 305 304 302 301 300 300 299 299 298 298 298 298 297 296 295 294 293 293 292 292 293 293 293 293 293 292 291 291 291 290 290 289 288 287 287 287 286 286 286
311 311 309 306 304 303 302 301 299 298 298 298 298 297 297 296 294 293 293 293 293 292 292 292 292 292 292 292 291 291 291 292 292 291 290 290 289 288 288 288 288 287 287 287
307 306 306 304 302 301 300 299 299 298 298 297 296 294 292 292 291 290 292 292 291 290 290 290 290 289 290 291 291 291 291 292 292 291 290 290 289 288 288 288 288 288 288 287
306 304 303 302 301 300 300 299 298 296 295 292 290 290 290 290 290 290 289 289 288 287 286 286 287 290 291 291 291 292 292 292 291 291 291 290 288 287 287 287 287 286 286 286
304 303 302 301 300 298 295 294 293 290 290 290 290 290 290 289 288 287 287 286 286 285 286 289 290 289 288 287 287 287 289 289 291 290 290 289 287 286 286 286 286 286 286 286
301 300 299 298 296 294 293 291 290 290 290 290 289 289 288 287 286 285 284 284 285 286 287 286 286 285 283 285 286 286 286 287 288 289 288 287 286 286 286 285 286 286 286 286
297 296 295 294 292 290 290 291 291 290 289 288 288 287 287 285 284 284 283 284 285 285 285 285 283 281 283 284 284 285 285 284 287 288 287 286 286 286 286 285 286 285 286 286
294 291 290 290 290 290 290 290 289 288 287 287 286 286 284 283 282 282 282 283 283 283 281 280 281 281 281 280 281 282 284 284 285 286 286 285 284 283 283 283 283 283 283 283
292 291 290 291 291 290 289 289 288 287 286 285 284 283 282 281 281 281 281 281 280 279 279 279 279 279 279 280 281 282 283 284 284 283 283 282 282 281 280 280 279 279 279 280
291 291 291 291 290 289 288 287 286 285 285 283 282 281 280 279 280 279 279 279 278 278 278 278 278 277 278 278 278 279 279 280 280 279 279 278 278 278 277 277 277 277 278 278
291 291 290 289 288 287 285 285 283 282 282 281 280 280 279 279 279 278 278 277 277 277 276 276 277 276 277 276 276 276 276 276 276 276 276 276 275 275 275 275 275 276 276 277
290 289 288 287 286 285 284 283 282 281 280 280 279 278 278 278 277 276 276 276 275 275 274 274 276 276 276 275 275 274 274 274 274 274 274 274 274 273 273 274 274 273 273 274
288 287 287 285 284 282 282 281 280 280 279 279 278 277 277 277 276 275 275 274 273 273 274 273 273 273 273 273 273 273 273 272 272 273 272 272 272 272 272 272 272 272 272 272
287 285 284 283 282 281 280 279 279 278 278 278 277 276 276 276 275 274 274 273 272 272 271 271 271 270 270 270 270 270 270 271 271 270 270 271 271 270 270 270 270 270 270 270

GFSNGP_850_thetae_057.txt.gz
Theta_e
317 318 320 320 321 320 320 319 318 318 319 318 315 315 317 319 318 322 323 323 323 323 321 320 318 316 314 312 310 308 302 300 300 298 297 297 296 295 294 294 294 295 295 295
322 321 319 318 319 319 318 318 318 317 317 316 316 317 316 317 318 320 323 323 322 321 319 317 316 314 312 310 308 302 300 299 298 297 295 293 293 293 292 292 294 294 295 295
321 314 315 313 316 317 317 317 317 317 315 315 315 315 315 316 316 318 322 322 320 319 318 316 315 313 310 306 303 301 299 297 295 294 294 294 294 292 292 294 294 294 295 294
314 312 311 316 316 315 316 315 313 313 314 315 315 316 317 316 317 317 319 319 318 318 316 313 311 309 305 303 300 299 297 295 296 295 295 294 293 293 293 294 294 294 293 293
312 313 316 316 315 314 314 314 313 313 314 315 315 316 315 316 317 317 317 317 317 315 313 309 307 304 301 299 297 295 295 296 298 295 294 292 292 293 293 293 292 291 291 292
311 314 311 315 314 315 314 312 314 313 313 315 315 312 314 315 315 316 316 315 313 310 307 305 301 300 299 297 296 296 296 299 294 294 292 292 293 293 293 292 292 292 291 292
307 310 313 318 314 314 312 312 315 316 317 317 315 316 315 315 315 314 312 311 308 306 303 300 299 298 297 296 296 299 297 295 294 293 291 292 292 292 292 292 292 292 291 291
313 316 315 318 314 313 315 316 315 316 317 317 316 315 314 313 310 309 306 304 303 301 299 298 297 297 297 299 297 294 294 293 292 291 292 292 292 290 290 289 291 291 290 290
315 315 316 317 316 315 315 315 315 315 315 315 315 314 313 307 305 302 302 300 299 299 298 297 298 299 300 294 294 292 292 291 291 291 291 292 291 290 290 290 288 289 289 289
316 317 314 316 315 315 315 314 314 314 314 314 314 312 307 303 301 300 299 299 299 299 299 300 299 294 294 293 292 292 292 291 291 291 291 291 290 290 290 289 287 287 287 288
316 315 316 315 315 315 314 314 313 313 313 313 311 303 302 300 300 299 299 299 299 299 297 295 295 294 293 292 292 292 292 292 292 291 290 289 290 290 289 288 287 287 286 286
311 316 315 314 314 314 313 310 310 310 308 305 307 302 300 299 299 299 300 297 296 296 295 293 293 293 293 292 292 292 292 292 292 291 291 291 290 290 289 288 288 287 287 287
316 316 313 310 310 310 309 306 305 305 303 302 301 301 301 299 296 296 296 296 296 294 293 293 293 292 292 293 293 293 292 292 292 292 292 291 291 290 290 289 289 288 287 287
314 312 309 309 303 305 305 303 303 302 302 301 299 298 298 296 296 296 294 293 293 293 292 292 292 292 292 292 292 292 292 292 291 291 291 291 291 291 290 290 290 288 288 287
313 312 306 304 304 303 303 302 301 299 298 298 296 295 295 294 293 293 293 292 291 290 289 288 288 287 287 287 288 289 290 291 291 291 291 292 292 291 290 290 289 288 288 287
306 305 305 304 302 301 300 299 298 298 296 297 296 294 292 290 290 290 290 289 288 287 286 286 287 288 289 288 288 287 286 286 286 287 289 289 291 291 290 290 288 288 287 286
305 303 302 301 300 299 299 298 297 297 296 291 290 290 290 289 289 288 288 286 285 285 286 288 288 288 286 284 283 282 285 285 286 286 285 288 288 289 289 287 286 285 286 286
306 304 303 300 299 298 297 297 295 291 290 290 290 289 289 289 288 286 285 284 284 285 286 285 285 284 283 281 281 283 283 284 284 284 284 284 287 288 287 286 286 285 285 285
304 302 300 298 298 297 294 291 290 290 290 289 288 288 287 286 285 284 284 283 283 283 283 283 282 280 280 280 279 279 280 281 282 283 284 285 286 287 286 286 286 285 285 285
300 299 297 295 295 292 290 291 290 289 288 288 287 286 285 284 283 283 282 282 282 282 281 279 279 279 278 279 279 280 281 282 283 284 284 285 284 284 284 283 283 283 283 282
296 296 295 292 290 291 291 290 289 288 287 287 286 285 284 283 282 281 281 281 280 279 278 278 278 278 278 278 278 278 279 279 280 280 280 280 280 280 280 279 279 279 279 279
293 291 290 290 290 290 288 288 287 287 286 286 284 283 282 281 281 280 279 278 278 277 277 277 277 277 277 277 277 277 277 277 277 277 277 277 277 277 277 277 276 276 277 277
290 290 290 290 289 288 287 287 286 285 284 283 282 282 280 280 279 279 278 277 277 276 276 276 277 276 276 276 276 276 276 276 275 275 275 275 275 275 275 275 275 275 275 275
291 291 290 288 287 287 286 284 284 283 282 281 280 280 279 278 278 277 276 276 276 276 276 275 275 275 275 275 275 274 274 274 274 273 273 273 273 273 273 273 273 273 273 273
290 289 287 286 286 286 285 282 282 282 281 280 279 278 278 277 277 276 275 275 274 274 274 273 273 273 273 273 273 272 272 272 272 272 272 271 271 271 271 271 271 271 271 271
288 287 286 286 285 284 283 281 280 280 279 279 278 277 277 276 276 275 274 274 273 272 272 271 271 270 271 270 270 271 271 271 270 270 270 270 269 269 269 269 270 270 270 269
287 286 285 285 284 282 280 280 279 278 278 278 277 276 276 276 275 275 274 273 272 271 271 270 270 270 270 269 269 269 270 269 269 269 270 269 269 268 269 269 269 269 269 269

GFSNGP_850_thetae_060.txt.gz
Theta_e
317 317 319 319 319 319 319 317 317 316 317 316 315 314 316 320 319 323 325 324 323 321 321 321 320 320 318 316 314 312 308 303 301 300 300 299 298 295 294 296 297 293 293 294
319 316 316 318 317 316 317 317 316 316 316 315 315 315 315 317 317 322 324 323 322 321 321 321 320 320 319 317 311 307 305 302 299 298 299 297 295 296 299 297 293 292 293 294
318 312 315 315 315 316 316 316 316 315 314 313 312 312 313 315 316 319 321 322 321 322 322 321 320 318 314 310 308 305 302 299 298 296 295 296 300 298 294 292 292 293 294 294
313 310 314 316 315 315 314 312 312 313 314 312 313 315 316 316 317 319 321 321 322 321 320 318 315 311 309 306 304 302 299 297 296 297 299 299 294 293 292 292 292 292 292 291
312 313 315 315 315 311 312 313 312 313 312 313 314 315 315 316 317 319 319 319 319 317 316 313 311 308 305 301 300 299 297 296 298 299 297 294 293 292 292 292 292 292 292 291
312 311 311 313 313 313 311 311 313 313 312 312 313 311 311 314 316 317 316 316 315 314 312 309 304 301 300 297 296 295 296 298 300 295 294 293 292 291 292 291 291 291 292 292
304 306 309 311 314 313 311 310 314 315 315 315 313 313 311 311 313 313 313 311 309 307 304 301 298 298 297 296 297 299 299 299 295 294 293 291 291 291 291 291 290 289 289 290
309 304 313 314 313 312 311 315 316 316 316 314 313 310 309 309 309 308 307 304 303 302 300 298 297 298 298 299 300 300 296 294 292 291 291 291 291 291 290 290 289 289 289 288
313 312 312 314 315 315 315 315 315 315 315 314 313 309 308 306 305 304 302 301 300 300 299 298 298 300 301 298 295 293 292 291 291 291 291 291 290 290 290 289 289 289 288 288
316 314 314 314 314 315 315 314 314 314 314 314 311 306 304 302 301 300 300 299 299 299 299 300 299 296 294 293 292 291 291 291 291 291 291 291 291 290 290 289 289 289 288 287
314 314 314 314 314 314 314 313 313 312 313 313 311 303 302 300 300 299 299 299 299 299 296 294 293 293 292 292 292 292 292 292 292 292 292 292 292 291 291 290 290 290 289 288
311 315 312 313 314 313 312 311 311 312 309 306 306 302 300 299 299 299 299 297 295 295 294 293 293 292 292 292 292 292 292 292 292 292 292 292 292 292 292 291 290 290 290 289
315 315 314 311 310 311 311 308 307 308 305 302 300 300 300 299 296 296 297 297 296 294 293 293 292 292 292 292 292 292 292 291 290 290 290 290 290 291 291 291 291 291 290 290
315 313 306 308 305 307 308 304 303 302 301 300 298 296 296 297 297 295 293 293 293 293 292 290 289 288 288 287 287 287 287 288 287 286 286 286 286 287 288 289 289 290 291 290
311 313 310 306 305 304 304 303 301 299 298 298 298 297 296 294 293 293 292 292 290 289 288 287 287 287 287 287 287 285 284 283 282 282 284 285 285 285 285 288 288 288 289 289
308 308 304 304 303 302 301 299 299 297 296 294 294 294 293 292 291 290 289 289 289 288 287 286 287 286 285 284 283 282 282 281 281 281 281 282 283 283 284 285 286 288 287 286
304 302 303 302 301 299 299 298 298 296 296 295 292 290 290 289 289 288 287 287 286 285 285 285 284 283 282 281 280 280 280 280 280 281 282 282 283 283 284 285 287 287 286 285
308 306 304 302 299 298 298 297 296 295 292 290 290 289 288 288 288 286 286 284 284 284 283 282 281 280 280 279 279 279 279 280 281 282 282 282 282 283 284 285 285 285 284 285
305 304 301 300 299 298 297 295 292 290 290 289 288 288 288 287 286 285 284 283 283 282 281 280 279 279 279 278 278 278 278 279 279 280 280 280 280 280 280 281 281 281 282 282
302 301 299 297 297 297 293 290 290 289 288 287 287 287 286 285 283 282 282 282 281 280 279 279 278 278 278 277 277 277 277 277 277 277 277 277 277 277 277 277 278 278 278 278
300 298 297 297 293 291 290 289 289 288 287 286 285 285 284 283 282 281 281 280 279 278 278 277 277 277 277 276 276 276 277 276 276 276 276 276 276 275 276 275 275 275 275 276
296 296 295 292 291 290 289 288 287 287 286 285 284 283 282 281 281 280 279 278 278 277 277 277 276 276 276 275 275 275 275 275 275 275 275 274 274 274 274 274 274 274 274 274
294 292 291 290 290 289 287 286 286 285 285 284 283 282 281 280 279 279 278 277 276 276 275 275 275 275 275 275 275 274 274 274 274 273 273 273 272 272 272 272 272 272 272 272
290 290 290 289 287 287 286 285 285 284 283 282 281 280 279 278 278 277 276 275 275 275 274 274 274 274 274 274 274 273 273 272 272 272 272 271 271 271 271 271 270 270 270 271
290 289 288 286 286 285 285 284 283 282 281 280 279 278 278 277 277 276 275 274 274 273 273 273 273 273 273 273 272 272 272 271 271 271 271 270 270 270 270 269 269 269 269 269
288 287 286 285 285 284 283 282 281 280 280 279 278 277 277 276 276 275 275 274 273 273 273 272 272 272 271 271 271 270 270 270 270 270 269 269 269 269 269 269 269 269 269 269
286 286 285 285 285 283 281 280 279 278 278 278 277 277 276 275 275 274 274 273 272 272 272 272 271 270 270 269 269 269 269 269 269 268 268 269 268 268 269 269 269 269 269 269

GFSNGP_850_thetae_066.txt.gz
Theta_e
314 315 314 315 316 313 314 314 315 315 313 313 313 312 313 316 315 315 319 323 325 328 329 329 329 327 325 324 324 321 316 314 311 311 310 309 302 299 298 297 295 296 299 296
317 315 315 318 316 314 314 315 313 314 313 311 313 312 312 312 313 314 316 321 323 325 327 327 327 325 322 321 318 315 314 312 311 309 306 300 297 297 296 298 300 299 293 291
316 312 314 314 313 314 314 313 314 314 312 312 312 311 312 313 313 315 317 318 321 322 322 323 323 322 319 317 316 315 312 311 308 302 299 297 296 297 299 300 299 292 291 291
312 309 311 313 313 312 313 312 310 309 312 311 310 311 312 314 316 318 318 319 320 320 320 319 320 320 318 316 314 312 310 306 300 296 297 299 299 299 299 296 293 291 290 290
314 312 312 314 314 312 312 312 309 309 311 311 312 313 311 313 317 318 319 319 319 319 318 318 317 316 315 312 310 306 301 297 297 298 298 299 299 298 295 293 291 290 290 290
307 311 314 313 313 310 309 311 309 310 310 310 310 307 306 310 314 316 317 318 318 317 317 316 314 312 310 307 302 298 296 297 297 298 299 299 296 294 291 290 290 290 290 289
304 308 312 312 311 310 311 311 309 312 313 311 308 306 307 309 312 314 315 315 315 314 314 312 310 307 303 297 296 297 298 299 299 300 297 294 291 290 290 290 290 290 290 290
304 306 317 311 311 310 309 310 312 312 313 312 311 308 309 309 310 310 311 309 308 308 304 300 299 300 298 297 298 299 299 298 296 292 291 291 291 291 291 291 291 291 291 291
314 314 313 312 312 313 312 312 313 313 313 313 311 308 308 307 307 306 305 304 302 301 297 297 298 299 299 297 298 298 296 292 291 291 291 291 291 291 291 291 291 291 291 291
313 312 311 313 313 313 313 314 314 314 314 312 311 309 307 305 303 301 300 300 299 298 298 297 296 297 298 300 294 292 292 291 291 291 291 291 291 290 290 289 288 287 286 285
311 312 313 314 314 314 314 314 314 314 313 312 312 307 306 303 300 299 298 298 298 298 297 297 298 297 293 292 292 291 291 291 290 289 288 287 287 286 285 284 282 283 284 285
314 314 314 314 314 313 314 314 314 314 311 309 309 308 303 300 298 298 298 298 297 296 300 298 293 292 292 291 290 289 288 288 288 287 286 285 284 284 283 283 282 281 281 281
314 315 314 314 314 313 314 314 314 313 312 310 305 305 301 299 298 298 297 297 299 297 293 292 292 291 289 288 288 287 287 286 285 284 283 283 282 282 282 282 282 282 283 283
314 313 310 311 310 311 312 311 311 310 307 306 304 300 299 298 298 297 296 296 295 293 292 291 289 288 288 287 286 285 284 283 283 282 281 281 281 281 281 280 281 281 282 282
309 311 312 310 308 308 308 308 307 305 303 301 300 299 299 298 297 296 295 294 292 291 289 288 287 287 286 285 284 283 282 282 281 281 280 279 279 279 280 280 280 280 280 281
310 309 310 311 306 305 304 303 305 301 300 299 299 298 298 297 295 293 292 290 288 288 287 287 286 285 284 283 282 282 281 280 280 279 279 278 278 278 278 278 278 278 278 278
309 304 303 301 304 302 304 302 302 300 299 298 297 297 295 293 292 290 288 287 287 287 286 285 284 283 282 281 281 280 279 279 278 278 278 277 277 277 277 277 277 276 276 276
310 308 305 304 301 301 299 299 299 299 297 296 295 293 293 291 289 288 287 287 286 285 284 283 282 281 281 280 279 279 278 278 278 277 277 276 276 276 276 276 276 275 275 275
308 307 305 303 302 301 299 299 298 296 295 294 292 290 288 287 287 287 286 285 283 283 282 281 280 280 279 278 278 278 277 277 277 276 276 275 275 275 275 275 275 274 274 274
304 303 302 301 299 300 299 296 294 293 292 290 288 288 287 287 286 285 283 282 282 281 280 280 279 278 278 278 277 277 277 276 276 275 275 275 274 274 274 273 273 273 273 273
302 301 300 301 299 298 294 291 292 290 287 287 288 287 286 285 284 283 282 281 281 280 279 278 278 277 277 277 277 276 276 275 275 274 274 274 274 273 273 272 272 272 272 271
302 301 299 297 294 292 291 291 289 287 288 288 285 285 284 283 282 281 280 280 279 278 278 277 276 276 276 276 275 275 274 274 274 273 273 273 272 272 272 271 271 271 270 270
297 296 294 293 293 291 287 285 286 288 285 284 284 283 282 281 280 280 279 278 277 277 276 276 275 275 274 274 274 273 273 273 272 272 272 271 271 271 270 270 270 270 270 270
293 293 292 291 288 286 287 285 284 283 283 283 282 281 280 280 279 278 278 277 276 276 275 274 274 273 272 272 272 272 271 271 271 270 270 270 270 269 269 269 269 269 269 269
292 289 286 286 288 287 286 283 283 283 283 283 281 280 279 278 278 277 277 276 275 274 274 273 272 272 271 270 270 270 270 269 269 269 269 269 269 268 268 268 268 268 269 269
289 288 287 287 286 284 284 284 284 283 281 280 279 278 277 277 276 276 275 275 274 273 272 272 271 270 270 269 269 268 268 269 269 268 268 267 267 267 267 267 267 267 268 268
287 287 286 285 284 284 283 282 281 280 279 278 277 277 277 276 275 275 274 273 272 272 271 270 269 269 268 268 268 268 268 268 267 267 267 266 266 267 267 267 267 267 267 268